Today

Time Wind Dr Wind Spd
mph
Wind Gust
mph
Hum In
%
Humid
%
TempI
F
Temp
F
Raw Bar
in
Tot Rain
in
UV Solar
W/sqm
DailyRain
in
HourRain
in
24HrRain
in
RainRate
in
09/22/19 12:00:31 AM 348 0.0 1.0 39 50 76.2 68.6 29.895 20.14 0.0 0 0.00 0.00 0.00 0.00
09/22/19 12:01:23 AM 348 0.0 1.0 39 50 76.2 68.5 29.895 20.14 0.0 0 0.00 0.00 0.00 0.00
09/22/19 12:02:35 AM 348 2.0 2.0 39 50 76.2 68.4 29.895 20.14 0.0 0 0.00 0.00 0.00 0.00
09/22/19 12:03:27 AM 348 2.0 2.0 39 50 76.2 68.4 29.894 20.14 0.0 0 0.00 0.00 0.00 0.00
09/22/19 12:04:35 AM 348 3.0 3.0 39 50 76.2 68.3 29.895 20.14 0.0 0 0.00 0.00 0.00 0.00
09/22/19 12:05:27 AM 348 2.0 3.0 39 51 76.2 68.3 29.894 20.14 0.0 0 0.00 0.00 0.00 0.00
09/22/19 12:06:20 AM 348 2.0 3.0 39 50 76.2 68.2 29.894 20.14 0.0 0 0.00 0.00 0.00 0.00
09/22/19 12:07:32 AM 348 2.0 3.0 39 50 76.2 68.1 29.895 20.14 0.0 0 0.00 0.00 0.00 0.00
09/22/19 12:08:25 AM 348 2.0 3.0 39 50 76.2 68.1 29.897 20.14 0.0 0 0.00 0.00 0.00 0.00
09/22/19 12:09:33 AM 348 2.0 3.0 39 50 76.1 68.0 29.896 20.14 0.0 0 0.00 0.00 0.00 0.00
09/22/19 12:10:23 AM 348 2.0 3.0 39 50 76.2 67.9 29.896 20.14 0.0 0 0.00 0.00 0.00 0.00
09/22/19 12:11:16 AM 348 1.0 3.0 39 50 76.2 67.9 29.894 20.14 0.0 0 0.00 0.00 0.00 0.00
09/22/19 12:12:28 AM 348 0.0 3.0 39 51 76.2 67.9 29.894 20.14 0.0 0 0.00 0.00 0.00 0.00
09/22/19 12:13:21 AM 348 1.0 3.0 39 51 76.2 67.8 29.894 20.14 0.0 0 0.00 0.00 0.00 0.00
09/22/19 12:14:29 AM 348 2.0 3.0 39 51 76.1 67.8 29.893 20.14 0.0 0 0.00 0.00 0.00 0.00
09/22/19 12:15:22 AM 348 3.0 3.0 39 51 76.1 67.8 29.893 20.14 0.0 0 0.00 0.00 0.00 0.00
09/22/19 12:16:34 AM 348 1.0 3.0 39 51 76.1 67.7 29.895 20.14 0.0 0 0.00 0.00 0.00 0.00
09/22/19 12:17:26 AM 348 2.0 3.0 39 51 76.1 67.8 29.893 20.14 0.0 0 0.00 0.00 0.00 0.00
09/22/19 12:18:19 AM 348 2.0 3.0 39 51 76.1 67.7 29.893 20.14 0.0 0 0.00 0.00 0.00 0.00
09/22/19 12:19:29 AM 348 1.0 3.0 39 51 76.1 67.7 29.894 20.14 0.0 0 0.00 0.00 0.00 0.00
09/22/19 12:20:17 AM 348 0.0 3.0 39 51 76.1 67.7 29.894 20.14 0.0 0 0.00 0.00 0.00 0.00
09/22/19 12:21:31 AM 348 0.0 3.0 39 51 76.1 67.7 29.894 20.14 0.0 0 0.00 0.00 0.00 0.00
09/22/19 12:22:23 AM 348 0.0 3.0 39 51 76.0 67.7 29.894 20.14 0.0 0 0.00 0.00 0.00 0.00
09/22/19 12:23:16 AM 348 0.0 3.0 39 52 76.0 67.7 29.896 20.14 0.0 0 0.00 0.00 0.00 0.00
09/22/19 12:24:29 AM 348 0.0 3.0 39 52 76.0 67.7 29.894 20.14 0.0 0 0.00 0.00 0.00 0.00
09/22/19 12:25:19 AM 348 0.0 3.0 39 52 76.0 67.7 29.894 20.14 0.0 0 0.00 0.00 0.00 0.00
09/22/19 12:26:30 AM 348 1.0 3.0 39 52 76.0 67.6 29.893 20.14 0.0 0 0.00 0.00 0.00 0.00
09/22/19 12:27:23 AM 348 0.0 3.0 39 51 76.0 67.6 29.893 20.14 0.0 0 0.00 0.00 0.00 0.00
09/22/19 12:28:33 AM 348 0.0 3.0 39 51 76.1 67.6 29.896 20.14 0.0 0 0.00 0.00 0.00 0.00
09/22/19 12:29:26 AM 348 0.0 3.0 39 51 76.0 67.6 29.895 20.14 0.0 0 0.00 0.00 0.00 0.00
09/22/19 12:30:19 AM 348 0.0 3.0 39 51 76.0 67.5 29.895 20.14 0.0 0 0.00 0.00 0.00 0.00
09/22/19 12:31:26 AM 348 0.0 3.0 39 52 76.0 67.5 29.895 20.14 0.0 0 0.00 0.00 0.00 0.00
09/22/19 12:32:19 AM 348 0.0 3.0 39 52 76.0 67.5 29.895 20.14 0.0 0 0.00 0.00 0.00 0.00
09/22/19 12:33:31 AM 348 0.0 3.0 39 52 76.0 67.4 29.897 20.14 0.0 0 0.00 0.00 0.00 0.00
09/22/19 12:34:24 AM 348 0.0 3.0 39 52 76.0 67.4 29.897 20.14 0.0 0 0.00 0.00 0.00 0.00
09/22/19 12:35:37 AM 348 0.0 3.0 39 51 76.0 67.3 29.896 20.14 0.0 0 0.00 0.00 0.00 0.00
09/22/19 12:36:24 AM 348 0.0 3.0 39 51 76.0 67.3 29.897 20.14 0.0 0 0.00 0.00 0.00 0.00
09/22/19 12:37:16 AM 348 0.0 3.0 39 51 76.0 67.3 29.897 20.14 0.0 0 0.00 0.00 0.00 0.00
09/22/19 12:38:27 AM 348 0.0 3.0 39 51 76.0 67.2 29.896 20.14 0.0 0 0.00 0.00 0.00 0.00
09/22/19 12:39:19 AM 348 0.0 3.0 39 51 76.0 67.2 29.896 20.14 0.0 0 0.00 0.00 0.00 0.00
09/22/19 12:40:34 AM 348 0.0 3.0 39 51 76.0 67.1 29.895 20.14 0.0 0 0.00 0.00 0.00 0.00
09/22/19 12:41:21 AM 348 0.0 3.0 39 51 76.0 67.1 29.895 20.14 0.0 0 0.00 0.00 0.00 0.00
09/22/19 12:42:32 AM 348 0.0 3.0 39 51 76.0 67.1 29.897 20.14 0.0 0 0.00 0.00 0.00 0.00
09/22/19 12:43:24 AM 348 0.0 3.0 39 51 76.0 67.0 29.897 20.14 0.0 0 0.00 0.00 0.00 0.00
09/22/19 12:44:17 AM 348 0.0 3.0 39 51 76.0 67.0 29.897 20.14 0.0 0 0.00 0.00 0.00 0.00
09/22/19 12:45:32 AM 348 0.0 3.0 39 52 76.0 67.0 29.896 20.14 0.0 0 0.00 0.00 0.00 0.00
09/22/19 12:46:25 AM 348 0.0 3.0 39 52 76.0 66.9 29.896 20.14 0.0 0 0.00 0.00 0.00 0.00
09/22/19 12:47:33 AM 348 0.0 3.0 39 52 76.0 66.9 29.896 20.14 0.0 0 0.00 0.00 0.00 0.00
09/22/19 12:48:25 AM 348 0.0 3.0 39 52 76.0 66.8 29.897 20.14 0.0 0 0.00 0.00 0.00 0.00
09/22/19 12:49:18 AM 348 0.0 3.0 39 52 76.0 66.8 29.897 20.14 0.0 0 0.00 0.00 0.00 0.00
09/22/19 12:50:28 AM 348 0.0 3.0 39 52 76.0 66.8 29.897 20.14 0.0 0 0.00 0.00 0.00 0.00
09/22/19 12:51:21 AM 348 0.0 3.0 39 52 76.0 66.7 29.897 20.14 0.0 0 0.00 0.00 0.00 0.00
09/22/19 12:52:29 AM 348 0.0 3.0 39 52 76.0 66.7 29.896 20.14 0.0 0 0.00 0.00 0.00 0.00
09/22/19 12:53:22 AM 348 0.0 3.0 39 52 76.0 66.7 29.896 20.14 0.0 0 0.00 0.00 0.00 0.00
09/22/19 12:54:34 AM 348 0.0 3.0 39 52 76.0 66.7 29.896 20.14 0.0 0 0.00 0.00 0.00 0.00
09/22/19 12:55:27 AM 348 3.0 3.0 39 52 76.0 66.6 29.897 20.14 0.0 0 0.00 0.00 0.00 0.00
09/22/19 12:56:17 AM 348 2.0 3.0 39 53 76.0 66.6 29.897 20.14 0.0 0 0.00 0.00 0.00 0.00
09/22/19 12:57:26 AM 348 2.0 3.0 39 52 76.0 66.6 29.895 20.14 0.0 0 0.00 0.00 0.00 0.00
09/22/19 12:58:18 AM 348 2.0 3.0 39 52 76.0 66.6 29.895 20.14 0.0 0 0.00 0.00 0.00 0.00
09/22/19 12:59:30 AM 348 2.0 3.0 39 52 76.0 66.6 29.898 20.14 0.0 0 0.00 0.00 0.00 0.00
09/22/19 1:00:23 AM 348 1.0 3.0 39 52 76.0 66.6 29.898 20.14 0.0 0 0.00 0.00 0.00 0.00
09/22/19 1:01:33 AM 348 2.0 3.0 39 52 75.9 66.6 29.898 20.14 0.0 0 0.00 0.00 0.00 0.00
09/22/19 1:02:26 AM 348 2.0 3.0 39 52 75.9 66.6 29.899 20.14 0.0 0 0.00 0.00 0.00 0.00
09/22/19 1:03:35 AM 348 2.0 3.0 39 52 75.9 66.6 29.898 20.14 0.0 0 0.00 0.00 0.00 0.00
09/22/19 1:04:25 AM 348 2.0 3.0 39 53 76.0 66.6 29.899 20.14 0.0 0 0.00 0.00 0.00 0.00
09/22/19 1:05:20 AM 348 2.0 3.0 39 52 76.0 66.6 29.899 20.14 0.0 0 0.00 0.00 0.00 0.00
09/22/19 1:06:34 AM 348 1.0 3.0 39 52 75.9 66.6 29.899 20.14 0.0 0 0.00 0.00 0.00 0.00
09/22/19 1:07:27 AM 348 1.0 3.0 39 52 75.9 66.6 29.900 20.14 0.0 0 0.00 0.00 0.00 0.00
09/22/19 1:08:32 AM 348 1.0 3.0 39 52 75.9 66.6 29.898 20.14 0.0 0 0.00 0.00 0.00 0.00
09/22/19 1:09:26 AM 348 1.0 3.0 39 52 75.9 66.6 29.897 20.14 0.0 0 0.00 0.00 0.00 0.00
09/22/19 1:10:17 AM 348 1.0 3.0 39 52 75.9 66.5 29.897 20.14 0.0 0 0.00 0.00 0.00 0.00
09/22/19 1:11:31 AM 348 2.0 3.0 39 52 75.9 66.5 29.899 20.14 0.0 0 0.00 0.00 0.00 0.00
09/22/19 1:12:21 AM 348 2.0 3.0 39 52 75.9 66.5 29.899 20.14 0.0 0 0.00 0.00 0.00 0.00
09/22/19 1:13:30 AM 348 2.0 3.0 39 52 75.8 66.5 29.897 20.14 0.0 0 0.00 0.00 0.00 0.00
09/22/19 1:14:22 AM 348 2.0 3.0 39 52 75.8 66.5 29.897 20.14 0.0 0 0.00 0.00 0.00 0.00
09/22/19 1:15:36 AM 348 1.0 3.0 39 52 75.8 66.5 29.897 20.14 0.0 0 0.00 0.00 0.00 0.00
09/22/19 1:16:28 AM 348 1.0 3.0 39 52 75.9 66.5 29.895 20.14 0.0 0 0.00 0.00 0.00 0.00
09/22/19 1:17:19 AM 348 1.0 3.0 39 52 75.9 66.5 29.895 20.14 0.0 0 0.00 0.00 0.00 0.00
09/22/19 1:18:34 AM 348 1.0 3.0 39 52 75.8 66.4 29.897 20.14 0.0 0 0.00 0.00 0.00 0.00
09/22/19 1:19:19 AM 348 1.0 3.0 39 52 75.8 66.4 29.897 20.14 0.0 0 0.00 0.00 0.00 0.00
09/22/19 1:20:31 AM 348 0.0 3.0 39 52 75.8 66.4 29.899 20.14 0.0 0 0.00 0.00 0.00 0.00
09/22/19 1:21:25 AM 348 1.0 3.0 39 51 75.8 66.3 29.900 20.14 0.0 0 0.00 0.00 0.00 0.00
09/22/19 1:22:15 AM 348 1.0 3.0 39 51 75.8 66.3 29.900 20.14 0.0 0 0.00 0.00 0.00 0.00
09/22/19 1:23:30 AM 348 1.0 3.0 39 52 75.8 66.3 29.897 20.14 0.0 0 0.00 0.00 0.00 0.00
09/22/19 1:24:17 AM 348 1.0 3.0 39 52 75.8 66.3 29.897 20.14 0.0 0 0.00 0.00 0.00 0.00
09/22/19 1:25:32 AM 348 1.0 3.0 39 51 75.8 66.3 29.900 20.14 0.0 0 0.00 0.00 0.00 0.00
09/22/19 1:26:21 AM 348 2.0 3.0 39 51 75.8 66.3 29.900 20.14 0.0 0 0.00 0.00 0.00 0.00
09/22/19 1:27:35 AM 348 1.0 3.0 39 51 75.8 66.4 29.899 20.14 0.0 0 0.00 0.00 0.00 0.00
09/22/19 1:28:26 AM 348 2.0 3.0 39 51 75.8 66.4 29.899 20.14 0.0 0 0.00 0.00 0.00 0.00
09/22/19 1:29:19 AM 348 1.0 3.0 39 51 75.8 66.4 29.899 20.14 0.0 0 0.00 0.00 0.00 0.00
09/22/19 1:30:26 AM 348 1.0 3.0 39 51 75.8 66.4 29.898 20.14 0.0 0 0.00 0.00 0.00 0.00
09/22/19 1:31:19 AM 348 0.0 3.0 39 51 75.8 66.5 29.898 20.14 0.0 0 0.00 0.00 0.00 0.00
09/22/19 1:32:31 AM 348 0.0 3.0 39 51 75.8 66.5 29.894 20.14 0.0 0 0.00 0.00 0.00 0.00
09/22/19 1:33:24 AM 348 0.0 3.0 39 51 75.8 66.5 29.896 20.14 0.0 0 0.00 0.00 0.00 0.00
09/22/19 1:34:36 AM 348 0.0 3.0 39 51 75.8 66.5 29.893 20.14 0.0 0 0.00 0.00 0.00 0.00
09/22/19 1:35:26 AM 348 0.0 3.0 39 51 75.8 66.5 29.893 20.14 0.0 0 0.00 0.00 0.00 0.00
09/22/19 1:36:16 AM 348 0.0 3.0 39 51 75.8 66.5 29.896 20.14 0.0 0 0.00 0.00 0.00 0.00
09/22/19 1:37:31 AM 348 0.0 3.0 39 51 75.8 66.4 29.894 20.14 0.0 0 0.00 0.00 0.00 0.00
09/22/19 1:38:21 AM 348 0.0 3.0 39 51 75.8 66.4 29.894 20.14 0.0 0 0.00 0.00 0.00 0.00
09/22/19 1:39:36 AM 348 0.0 3.0 39 51 75.8 66.4 29.897 20.14 0.0 0 0.00 0.00 0.00 0.00
09/22/19 1:40:23 AM 348 0.0 3.0 39 51 75.8 66.3 29.897 20.14 0.0 0 0.00 0.00 0.00 0.00
09/22/19 1:41:16 AM 348 0.0 3.0 39 51 75.8 66.3 29.895 20.14 0.0 0 0.00 0.00 0.00 0.00
09/22/19 1:42:27 AM 348 0.0 3.0 39 51 75.8 66.3 29.895 20.14 0.0 0 0.00 0.00 0.00 0.00
09/22/19 1:43:19 AM 348 0.0 3.0 39 51 75.8 66.3 29.895 20.14 0.0 0 0.00 0.00 0.00 0.00
09/22/19 1:44:31 AM 348 0.0 3.0 39 51 75.8 66.2 29.896 20.14 0.0 0 0.00 0.00 0.00 0.00
09/22/19 1:45:24 AM 348 0.0 3.0 39 51 75.8 66.2 29.896 20.14 0.0 0 0.00 0.00 0.00 0.00
09/22/19 1:46:32 AM 348 0.0 3.0 39 51 75.8 66.2 29.895 20.14 0.0 0 0.00 0.00 0.00 0.00
09/22/19 1:47:25 AM 348 0.0 3.0 39 51 75.8 66.2 29.894 20.14 0.0 0 0.00 0.00 0.00 0.00
09/22/19 1:48:15 AM 348 0.0 3.0 39 51 75.8 66.2 29.894 20.14 0.0 0 0.00 0.00 0.00 0.00
09/22/19 1:49:29 AM 348 0.0 3.0 39 51 75.8 66.1 29.896 20.14 0.0 0 0.00 0.00 0.00 0.00
09/22/19 1:50:22 AM 348 0.0 3.0 39 51 75.8 66.1 29.896 20.14 0.0 0 0.00 0.00 0.00 0.00
09/22/19 1:51:30 AM 348 0.0 3.0 39 51 75.8 66.1 29.896 20.14 0.0 0 0.00 0.00 0.00 0.00
09/22/19 1:52:23 AM 348 0.0 3.0 39 51 75.8 66.0 29.896 20.14 0.0 0 0.00 0.00 0.00 0.00
09/22/19 1:53:35 AM 348 0.0 3.0 39 52 75.8 66.0 29.894 20.14 0.0 0 0.00 0.00 0.00 0.00
09/22/19 1:54:25 AM 348 0.0 3.0 39 52 75.8 65.9 29.892 20.14 0.0 0 0.00 0.00 0.00 0.00
09/22/19 1:55:19 AM 348 0.0 3.0 39 52 75.8 65.9 29.892 20.14 0.0 0 0.00 0.00 0.00 0.00
09/22/19 1:56:26 AM 348 0.0 3.0 39 52 75.8 65.8 29.891 20.14 0.0 0 0.00 0.00 0.00 0.00
09/22/19 1:57:19 AM 348 2.0 3.0 39 52 75.8 65.8 29.891 20.14 0.0 0 0.00 0.00 0.00 0.00
09/22/19 1:58:32 AM 348 4.0 4.0 39 51 75.7 65.7 29.892 20.14 0.0 0 0.00 0.00 0.00 0.00
09/22/19 1:59:26 AM 348 2.0 4.0 39 51 75.7 65.7 29.891 20.14 0.0 0 0.00 0.00 0.00 0.00
09/22/19 2:00:16 AM 348 2.0 4.0 39 51 75.7 65.7 29.891 20.14 0.0 0 0.00 0.00 0.00 0.00
09/22/19 2:01:27 AM 348 2.0 4.0 39 52 75.7 65.7 29.893 20.14 0.0 0 0.00 0.00 0.00 0.00
09/22/19 2:02:17 AM 348 3.0 4.0 39 51 75.7 65.7 29.893 20.14 0.0 0 0.00 0.00 0.00 0.00
09/22/19 2:03:28 AM 348 3.0 4.0 39 50 75.7 65.8 29.892 20.14 0.0 0 0.00 0.00 0.00 0.00
09/22/19 2:04:20 AM 348 2.0 4.0 39 50 75.7 65.8 29.892 20.14 0.0 0 0.00 0.00 0.00 0.00
09/22/19 2:05:34 AM 348 3.0 4.0 39 51 75.7 65.8 29.893 20.14 0.0 0 0.00 0.00 0.00 0.00
09/22/19 2:06:24 AM 348 2.0 4.0 39 50 75.7 65.9 29.891 20.14 0.0 0 0.00 0.00 0.00 0.00
09/22/19 2:07:34 AM 348 2.0 4.0 39 50 75.7 65.9 29.891 20.14 0.0 0 0.00 0.00 0.00 0.00
09/22/19 2:08:25 AM 348 2.0 4.0 39 50 75.7 65.9 29.892 20.14 0.0 0 0.00 0.00 0.00 0.00
09/22/19 2:09:18 AM 348 2.0 4.0 39 50 75.7 65.9 29.892 20.14 0.0 0 0.00 0.00 0.00 0.00
09/22/19 2:10:30 AM 348 1.0 4.0 39 51 75.7 65.9 29.891 20.14 0.0 0 0.00 0.00 0.00 0.00
09/22/19 2:11:21 AM 348 2.0 4.0 39 51 75.7 65.9 29.891 20.14 0.0 0 0.00 0.00 0.00 0.00
09/22/19 2:12:30 AM 348 1.0 4.0 39 50 75.7 65.9 29.889 20.14 0.0 0 0.00 0.00 0.00 0.00
09/22/19 2:13:22 AM 348 0.0 4.0 39 50 75.7 65.9 29.889 20.14 0.0 0 0.00 0.00 0.00 0.00
09/22/19 2:14:36 AM 348 0.0 4.0 39 49 75.7 65.9 29.888 20.14 0.0 0 0.00 0.00 0.00 0.00
09/22/19 2:15:28 AM 348 1.0 4.0 39 49 75.7 65.9 29.890 20.14 0.0 0 0.00 0.00 0.00 0.00
09/22/19 2:16:21 AM 348 0.0 4.0 39 49 75.7 65.9 29.890 20.14 0.0 0 0.00 0.00 0.00 0.00
09/22/19 2:17:33 AM 348 0.0 4.0 39 49 75.6 65.9 29.889 20.14 0.0 0 0.00 0.00 0.00 0.00
09/22/19 2:18:23 AM 348 0.0 4.0 39 48 75.6 65.9 29.889 20.14 0.0 0 0.00 0.00 0.00 0.00
09/22/19 2:19:33 AM 348 0.0 4.0 39 48 75.6 65.8 29.889 20.14 0.0 0 0.00 0.00 0.00 0.00
09/22/19 2:20:27 AM 348 0.0 4.0 39 48 75.6 65.8 29.890 20.14 0.0 0 0.00 0.00 0.00 0.00
09/22/19 2:21:17 AM 348 0.0 4.0 39 48 75.6 65.7 29.890 20.14 0.0 0 0.00 0.00 0.00 0.00
09/22/19 2:22:29 AM 348 0.0 4.0 39 48 75.6 65.7 29.888 20.14 0.0 0 0.00 0.00 0.00 0.00
09/22/19 2:23:20 AM 348 0.0 4.0 39 47 75.6 65.7 29.888 20.14 0.0 0 0.00 0.00 0.00 0.00
09/22/19 2:24:31 AM 348 0.0 4.0 39 47 75.6 65.6 29.886 20.14 0.0 0 0.00 0.00 0.00 0.00
09/22/19 2:25:28 AM 348 0.0 4.0 39 47 75.6 65.6 29.886 20.14 0.0 0 0.00 0.00 0.00 0.00
09/22/19 2:26:35 AM 348 0.0 4.0 39 47 75.6 65.6 29.888 20.14 0.0 0 0.00 0.00 0.00 0.00
09/22/19 2:27:28 AM 348 0.0 4.0 39 47 75.6 65.5 29.887 20.14 0.0 0 0.00 0.00 0.00 0.00
09/22/19 2:28:20 AM 348 0.0 4.0 39 47 75.6 65.5 29.887 20.14 0.0 0 0.00 0.00 0.00 0.00
09/22/19 2:29:28 AM 348 0.0 4.0 39 47 75.5 65.4 29.886 20.14 0.0 0 0.00 0.00 0.00 0.00
09/22/19 2:30:21 AM 348 0.0 4.0 39 47 75.5 65.4 29.886 20.14 0.0 0 0.00 0.00 0.00 0.00
09/22/19 2:31:33 AM 348 0.0 4.0 39 47 75.5 65.4 29.884 20.14 0.0 0 0.00 0.00 0.00 0.00
09/22/19 2:32:26 AM 348 0.0 4.0 39 47 75.5 65.3 29.883 20.14 0.0 0 0.00 0.00 0.00 0.00
09/22/19 2:33:18 AM 348 0.0 4.0 39 47 75.5 65.3 29.883 20.14 0.0 0 0.00 0.00 0.00 0.00
09/22/19 2:34:25 AM 348 0.0 4.0 39 47 75.5 65.3 29.885 20.14 0.0 0 0.00 0.00 0.00 0.00
09/22/19 2:35:18 AM 348 0.0 4.0 39 47 75.5 65.3 29.885 20.14 0.0 0 0.00 0.00 0.00 0.00
09/22/19 2:36:29 AM 348 0.0 4.0 39 46 75.5 65.2 29.886 20.14 0.0 0 0.00 0.00 0.00 0.00
09/22/19 2:37:21 AM 348 0.0 4.0 39 46 75.5 65.1 29.886 20.14 0.0 0 0.00 0.00 0.00 0.00
09/22/19 2:38:33 AM 348 0.0 4.0 39 46 75.5 65.1 29.884 20.14 0.0 0 0.00 0.00 0.00 0.00
09/22/19 2:39:22 AM 348 0.0 4.0 39 46 75.5 65.0 29.884 20.14 0.0 0 0.00 0.00 0.00 0.00
09/22/19 2:40:33 AM 348 0.0 4.0 39 46 75.6 65.0 29.883 20.14 0.0 0 0.00 0.00 0.00 0.00
09/22/19 2:41:25 AM 348 0.0 4.0 39 46 75.5 64.9 29.884 20.14 0.0 0 0.00 0.00 0.00 0.00
09/22/19 2:42:18 AM 348 0.0 4.0 39 45 75.5 64.9 29.884 20.14 0.0 0 0.00 0.00 0.00 0.00
09/22/19 2:43:29 AM 348 0.0 4.0 39 45 75.5 64.9 29.883 20.14 0.0 0 0.00 0.00 0.00 0.00
09/22/19 2:44:22 AM 348 0.0 4.0 39 45 75.5 64.8 29.883 20.14 0.0 0 0.00 0.00 0.00 0.00
09/22/19 2:45:30 AM 348 0.0 4.0 39 45 75.5 64.8 29.878 20.14 0.0 0 0.00 0.00 0.00 0.00
09/22/19 2:46:22 AM 348 0.0 4.0 39 45 75.5 64.8 29.878 20.14 0.0 0 0.00 0.00 0.00 0.00
09/22/19 2:47:37 AM 348 0.0 4.0 39 45 75.4 64.7 29.881 20.14 0.0 0 0.00 0.00 0.00 0.00
09/22/19 2:48:27 AM 348 2.0 4.0 39 44 75.5 64.7 29.882 20.14 0.0 0 0.00 0.00 0.00 0.00
09/22/19 2:49:20 AM 348 2.0 4.0 39 44 75.5 64.7 29.882 20.14 0.0 0 0.00 0.00 0.00 0.00
09/22/19 2:50:28 AM 348 2.0 4.0 39 44 75.5 64.7 29.881 20.14 0.0 0 0.00 0.00 0.00 0.00
09/22/19 2:51:22 AM 348 1.0 4.0 39 44 75.5 64.7 29.881 20.14 0.0 0 0.00 0.00 0.00 0.00
09/22/19 2:52:34 AM 348 1.0 4.0 39 44 75.4 64.7 29.880 20.14 0.0 0 0.00 0.00 0.00 0.00
09/22/19 2:53:26 AM 348 2.0 4.0 39 44 75.5 64.6 29.878 20.14 0.0 0 0.00 0.00 0.00 0.00
09/22/19 2:54:19 AM 348 1.0 4.0 39 43 75.5 64.6 29.878 20.14 0.0 0 0.00 0.00 0.00 0.00
09/22/19 2:55:27 AM 348 1.0 4.0 39 43 75.4 64.6 29.877 20.14 0.0 0 0.00 0.00 0.00 0.00
09/22/19 2:56:18 AM 348 1.0 4.0 39 43 75.4 64.5 29.877 20.14 0.0 0 0.00 0.00 0.00 0.00
09/22/19 2:57:31 AM 348 1.0 4.0 39 43 75.4 64.5 29.877 20.14 0.0 0 0.00 0.00 0.00 0.00
09/22/19 2:58:24 AM 348 1.0 4.0 39 43 75.4 64.5 29.877 20.14 0.0 0 0.00 0.00 0.00 0.00
09/22/19 2:59:15 AM 348 0.0 4.0 39 43 75.4 64.4 29.876 20.14 0.0 0 0.00 0.00 0.00 0.00
09/22/19 3:00:29 AM 348 1.0 4.0 39 43 75.4 64.4 29.876 20.14 0.0 0 0.00 0.00 0.00 0.00
09/22/19 3:01:16 AM 348 0.0 4.0 39 43 75.4 64.3 29.876 20.14 0.0 0 0.00 0.00 0.00 0.00
09/22/19 3:02:27 AM 348 0.0 4.0 39 43 75.4 64.3 29.876 20.14 0.0 0 0.00 0.00 0.00 0.00
09/22/19 3:03:20 AM 348 0.0 4.0 39 44 75.4 64.3 29.876 20.14 0.0 0 0.00 0.00 0.00 0.00
09/22/19 3:04:31 AM 348 0.0 4.0 39 44 75.4 64.2 29.873 20.14 0.0 0 0.00 0.00 0.00 0.00
09/22/19 3:05:25 AM 348 1.0 4.0 39 44 75.4 64.2 29.873 20.14 0.0 0 0.00 0.00 0.00 0.00
09/22/19 3:06:34 AM 348 0.0 4.0 39 43 75.4 64.2 29.875 20.14 0.0 0 0.00 0.00 0.00 0.00
09/22/19 3:07:24 AM 348 0.0 4.0 39 43 75.4 64.2 29.871 20.14 0.0 0 0.00 0.00 0.00 0.00
09/22/19 3:08:18 AM 348 0.0 4.0 39 43 75.4 64.1 29.871 20.14 0.0 0 0.00 0.00 0.00 0.00
09/22/19 3:09:30 AM 348 0.0 4.0 39 44 75.4 64.1 29.873 20.14 0.0 0 0.00 0.00 0.00 0.00
09/22/19 3:10:23 AM 348 0.0 4.0 39 44 75.4 64.1 29.873 20.14 0.0 0 0.00 0.00 0.00 0.00
09/22/19 3:11:31 AM 348 0.0 4.0 39 44 75.3 64.1 29.873 20.14 0.0 0 0.00 0.00 0.00 0.00
09/22/19 3:12:22 AM 348 0.0 4.0 39 44 75.3 64.0 29.873 20.14 0.0 0 0.00 0.00 0.00 0.00
09/22/19 3:13:34 AM 348 0.0 4.0 39 44 75.3 64.0 29.870 20.14 0.0 0 0.00 0.00 0.00 0.00
09/22/19 3:14:27 AM 348 0.0 4.0 39 44 75.3 64.0 29.871 20.14 0.0 0 0.00 0.00 0.00 0.00
09/22/19 3:15:18 AM 348 0.0 4.0 39 44 75.3 63.9 29.871 20.14 0.0 0 0.00 0.00 0.00 0.00
09/22/19 3:16:30 AM 348 0.0 4.0 39 43 75.3 63.9 29.871 20.14 0.0 0 0.00 0.00 0.00 0.00
09/22/19 3:17:20 AM 348 0.0 4.0 39 43 75.3 63.9 29.871 20.14 0.0 0 0.00 0.00 0.00 0.00
09/22/19 3:18:31 AM 348 0.0 4.0 39 43 75.3 63.9 29.870 20.14 0.0 0 0.00 0.00 0.00 0.00
09/22/19 3:19:24 AM 348 0.0 4.0 39 43 75.3 63.9 29.870 20.14 0.0 0 0.00 0.00 0.00 0.00
09/22/19 3:20:17 AM 348 0.0 4.0 39 43 75.3 64.0 29.870 20.14 0.0 0 0.00 0.00 0.00 0.00
09/22/19 3:21:30 AM 348 0.0 4.0 39 43 75.3 64.0 29.869 20.14 0.0 0 0.00 0.00 0.00 0.00
09/22/19 3:22:17 AM 348 0.0 4.0 39 43 75.3 64.0 29.869 20.14 0.0 0 0.00 0.00 0.00 0.00
09/22/19 3:23:31 AM 348 0.0 4.0 39 42 75.3 64.0 29.870 20.14 0.0 0 0.00 0.00 0.00 0.00
09/22/19 3:24:23 AM 348 0.0 4.0 39 42 75.3 64.1 29.870 20.14 0.0 0 0.00 0.00 0.00 0.00
09/22/19 3:25:17 AM 348 0.0 4.0 39 42 75.3 64.1 29.868 20.14 0.0 0 0.00 0.00 0.00 0.00
09/22/19 3:26:29 AM 348 0.0 4.0 39 42 75.3 64.1 29.869 20.14 0.0 0 0.00 0.00 0.00 0.00
09/22/19 3:27:19 AM 348 0.0 4.0 39 42 75.3 64.1 29.869 20.14 0.0 0 0.00 0.00 0.00 0.00
09/22/19 3:28:28 AM 348 0.0 4.0 39 42 75.2 64.1 29.868 20.14 0.0 0 0.00 0.00 0.00 0.00
09/22/19 3:29:20 AM 348 0.0 4.0 39 42 75.2 64.1 29.868 20.14 0.0 0 0.00 0.00 0.00 0.00
09/22/19 3:30:32 AM 348 0.0 4.0 39 42 75.3 64.1 29.867 20.14 0.0 0 0.00 0.00 0.00 0.00
09/22/19 3:31:25 AM 348 0.0 4.0 39 42 75.3 64.1 29.867 20.14 0.0 0 0.00 0.00 0.00 0.00
09/22/19 3:32:15 AM 348 0.0 4.0 39 42 75.3 64.1 29.867 20.14 0.0 0 0.00 0.00 0.00 0.00
09/22/19 3:33:24 AM 348 0.0 4.0 39 42 75.2 64.1 29.864 20.14 0.0 0 0.00 0.00 0.00 0.00
09/22/19 3:34:15 AM 348 0.0 4.0 39 42 75.2 64.1 29.864 20.14 0.0 0 0.00 0.00 0.00 0.00
09/22/19 3:35:30 AM 348 0.0 4.0 39 42 75.2 64.1 29.864 20.14 0.0 0 0.00 0.00 0.00 0.00
09/22/19 3:36:21 AM 348 0.0 4.0 39 41 75.2 64.1 29.864 20.14 0.0 0 0.00 0.00 0.00 0.00
09/22/19 3:37:32 AM 348 0.0 4.0 39 42 75.3 64.1 29.861 20.14 0.0 0 0.00 0.00 0.00 0.00
09/22/19 3:38:19 AM 348 0.0 4.0 39 42 75.3 64.0 29.861 20.14 0.0 0 0.00 0.00 0.00 0.00
09/22/19 3:39:32 AM 348 0.0 4.0 39 41 75.2 64.0 29.864 20.14 0.0 0 0.00 0.00 0.00 0.00
09/22/19 3:40:26 AM 348 0.0 4.0 39 41 75.2 64.0 29.864 20.14 0.0 0 0.00 0.00 0.00 0.00
09/22/19 3:41:18 AM 348 0.0 4.0 39 41 75.2 64.0 29.864 20.14 0.0 0 0.00 0.00 0.00 0.00
09/22/19 3:42:32 AM 348 0.0 4.0 39 41 75.2 64.0 29.865 20.14 0.0 0 0.00 0.00 0.00 0.00
09/22/19 3:43:25 AM 348 0.0 4.0 39 41 75.2 63.9 29.865 20.14 0.0 0 0.00 0.00 0.00 0.00
09/22/19 3:44:33 AM 348 0.0 4.0 39 41 75.2 63.9 29.863 20.14 0.0 0 0.00 0.00 0.00 0.00
09/22/19 3:45:25 AM 348 0.0 4.0 39 41 75.2 63.9 29.863 20.14 0.0 0 0.00 0.00 0.00 0.00
09/22/19 3:46:18 AM 348 0.0 4.0 39 41 75.2 63.9 29.864 20.14 0.0 0 0.00 0.00 0.00 0.00
09/22/19 3:47:30 AM 348 0.0 4.0 39 42 75.3 63.8 29.863 20.14 0.0 0 0.00 0.00 0.00 0.00
09/22/19 3:48:23 AM 348 0.0 4.0 39 42 75.3 63.8 29.863 20.14 0.0 0 0.00 0.00 0.00 0.00
09/22/19 3:49:31 AM 348 0.0 4.0 39 43 75.2 63.8 29.865 20.14 0.0 0 0.00 0.00 0.00 0.00
09/22/19 3:50:24 AM 348 0.0 4.0 39 43 75.2 63.8 29.865 20.14 0.0 0 0.00 0.00 0.00 0.00
09/22/19 3:51:17 AM 348 0.0 4.0 39 42 75.2 63.8 29.862 20.14 0.0 0 0.00 0.00 0.00 0.00
09/22/19 3:52:26 AM 348 0.0 4.0 39 42 75.3 63.7 29.865 20.14 0.0 0 0.00 0.00 0.00 0.00
09/22/19 3:53:19 AM 348 0.0 4.0 39 42 75.3 63.7 29.865 20.14 0.0 0 0.00 0.00 0.00 0.00
09/22/19 3:54:25 AM 348 0.0 4.0 39 42 75.2 63.6 29.867 20.14 0.0 0 0.00 0.00 0.00 0.00
09/22/19 3:55:18 AM 348 0.0 4.0 39 42 75.2 63.6 29.867 20.14 0.0 0 0.00 0.00 0.00 0.00
09/22/19 3:56:29 AM 348 0.0 4.0 39 42 75.3 63.6 29.867 20.14 0.0 0 0.00 0.00 0.00 0.00
09/22/19 3:57:19 AM 348 0.0 4.0 39 43 75.3 63.6 29.867 20.14 0.0 0 0.00 0.00 0.00 0.00
09/22/19 3:58:31 AM 348 0.0 4.0 39 43 75.2 63.6 29.867 20.14 0.0 0 0.00 0.00 0.00 0.00
09/22/19 3:59:24 AM 348 0.0 4.0 39 43 75.3 63.5 29.866 20.14 0.0 0 0.00 0.00 0.00 0.00
09/22/19 4:00:33 AM 348 0.0 4.0 39 43 75.3 63.5 29.867 20.14 0.0 0 0.00 0.00 0.00 0.00
09/22/19 4:01:26 AM 348 0.0 4.0 39 43 75.3 63.5 29.868 20.14 0.0 0 0.00 0.00 0.00 0.00
09/22/19 4:02:15 AM 348 0.0 4.0 39 43 75.3 63.5 29.868 20.14 0.0 0 0.00 0.00 0.00 0.00
09/22/19 4:03:27 AM 348 0.0 4.0 39 43 75.2 63.5 29.868 20.14 0.0 0 0.00 0.00 0.00 0.00
09/22/19 4:04:21 AM 348 0.0 4.0 39 43 75.2 63.5 29.868 20.14 0.0 0 0.00 0.00 0.00 0.00
09/22/19 4:05:30 AM 348 0.0 4.0 39 43 75.2 63.5 29.866 20.14 0.0 0 0.00 0.00 0.00 0.00
09/22/19 4:06:20 AM 348 0.0 4.0 39 43 75.2 63.6 29.866 20.14 0.0 0 0.00 0.00 0.00 0.00
09/22/19 4:07:31 AM 348 0.0 4.0 39 43 75.1 63.7 29.867 20.14 0.0 0 0.00 0.00 0.00 0.00
09/22/19 4:08:23 AM 348 0.0 4.0 39 43 75.1 63.7 29.867 20.14 0.0 0 0.00 0.00 0.00 0.00
09/22/19 4:09:35 AM 348 0.0 4.0 39 43 75.2 63.8 29.867 20.14 0.0 0 0.00 0.00 0.00 0.00
09/22/19 4:10:24 AM 348 0.0 4.0 39 42 75.2 63.8 29.867 20.14 0.0 0 0.00 0.00 0.00 0.00
09/22/19 4:11:14 AM 348 0.0 4.0 39 42 75.2 63.8 29.866 20.14 0.0 0 0.00 0.00 0.00 0.00
09/22/19 4:12:30 AM 348 0.0 4.0 39 42 75.2 63.9 29.866 20.14 0.0 0 0.00 0.00 0.00 0.00
09/22/19 4:13:20 AM 348 0.0 4.0 39 43 75.2 63.9 29.866 20.14 0.0 0 0.00 0.00 0.00 0.00
09/22/19 4:14:31 AM 348 0.0 4.0 39 43 75.1 63.9 29.868 20.14 0.0 0 0.00 0.00 0.00 0.00
09/22/19 4:15:25 AM 348 0.0 4.0 39 42 75.1 63.9 29.868 20.14 0.0 0 0.00 0.00 0.00 0.00
09/22/19 4:16:31 AM 348 0.0 4.0 39 42 75.2 64.0 29.869 20.14 0.0 0 0.00 0.00 0.00 0.00
09/22/19 4:17:25 AM 348 0.0 4.0 39 42 75.2 64.0 29.868 20.14 0.0 0 0.00 0.00 0.00 0.00
09/22/19 4:18:16 AM 348 0.0 4.0 39 42 75.2 64.0 29.868 20.14 0.0 0 0.00 0.00 0.00 0.00
09/22/19 4:19:28 AM 348 0.0 4.0 39 42 75.2 64.0 29.868 20.14 0.0 0 0.00 0.00 0.00 0.00
09/22/19 4:20:21 AM 348 0.0 4.0 39 42 75.2 63.9 29.868 20.14 0.0 0 0.00 0.00 0.00 0.00
09/22/19 4:21:30 AM 348 0.0 4.0 39 42 75.2 64.0 29.868 20.14 0.0 0 0.00 0.00 0.00 0.00
09/22/19 4:22:23 AM 348 0.0 4.0 39 42 75.2 64.0 29.868 20.14 0.0 0 0.00 0.00 0.00 0.00
09/22/19 4:23:34 AM 348 0.0 4.0 39 43 75.2 64.0 29.867 20.14 0.0 0 0.00 0.00 0.00 0.00
09/22/19 4:24:27 AM 348 0.0 4.0 39 44 75.1 64.0 29.869 20.14 0.0 0 0.00 0.00 0.00 0.00
09/22/19 4:25:21 AM 348 0.0 4.0 39 44 75.1 64.0 29.869 20.14 0.0 0 0.00 0.00 0.00 0.00
09/22/19 4:26:29 AM 348 0.0 4.0 39 43 75.1 64.0 29.867 20.14 0.0 0 0.00 0.00 0.00 0.00
09/22/19 4:27:20 AM 348 0.0 4.0 39 43 75.1 64.0 29.867 20.14 0.0 0 0.00 0.00 0.00 0.00
09/22/19 4:28:34 AM 348 0.0 4.0 39 43 75.2 64.0 29.867 20.14 0.0 0 0.00 0.00 0.00 0.00
09/22/19 4:29:27 AM 348 0.0 4.0 39 43 75.1 64.0 29.866 20.14 0.0 0 0.00 0.00 0.00 0.00
09/22/19 4:30:18 AM 348 0.0 4.0 39 43 75.1 63.9 29.866 20.14 0.0 0 0.00 0.00 0.00 0.00
09/22/19 4:31:32 AM 348 0.0 4.0 39 44 75.1 63.9 29.868 20.14 0.0 0 0.00 0.00 0.00 0.00
09/22/19 4:32:20 AM 348 0.0 4.0 39 44 75.1 63.9 29.868 20.14 0.0 0 0.00 0.00 0.00 0.00
09/22/19 4:33:32 AM 348 0.0 4.0 39 44 75.1 63.9 29.864 20.14 0.0 0 0.00 0.00 0.00 0.00
09/22/19 4:34:25 AM 348 0.0 4.0 39 43 75.1 63.9 29.866 20.14 0.0 0 0.00 0.00 0.00 0.00
09/22/19 4:35:18 AM 348 0.0 4.0 39 44 75.1 63.8 29.866 20.14 0.0 0 0.00 0.00 0.00 0.00
09/22/19 4:36:29 AM 348 3.0 4.0 39 44 75.0 63.8 29.867 20.14 0.0 0 0.00 0.00 0.00 0.00
09/22/19 4:37:15 AM 348 2.0 4.0 39 44 75.0 63.8 29.867 20.14 0.0 0 0.00 0.00 0.00 0.00
09/22/19 4:38:30 AM 348 3.0 4.0 39 44 75.1 63.7 29.867 20.14 0.0 0 0.00 0.00 0.00 0.00
09/22/19 4:39:19 AM 348 2.0 4.0 39 44 75.1 63.7 29.867 20.14 0.0 0 0.00 0.00 0.00 0.00
09/22/19 4:40:32 AM 348 2.0 4.0 39 45 75.0 63.7 29.865 20.14 0.0 0 0.00 0.00 0.00 0.00
09/22/19 4:41:25 AM 348 2.0 4.0 39 45 75.0 63.6 29.866 20.14 0.0 0 0.00 0.00 0.00 0.00
09/22/19 4:42:16 AM 348 2.0 4.0 39 45 75.0 63.6 29.866 20.14 0.0 0 0.00 0.00 0.00 0.00
09/22/19 4:43:24 AM 348 2.0 4.0 39 44 75.0 63.6 29.867 20.14 0.0 0 0.00 0.00 0.00 0.00
09/22/19 4:44:15 AM 348 1.0 4.0 39 45 75.0 63.6 29.866 20.14 0.0 0 0.00 0.00 0.00 0.00
09/22/19 4:45:29 AM 348 2.0 4.0 39 45 75.0 63.6 29.866 20.14 0.0 0 0.00 0.00 0.00 0.00
09/22/19 4:46:22 AM 348 2.0 4.0 39 45 75.0 63.6 29.866 20.14 0.0 0 0.00 0.00 0.00 0.00
09/22/19 4:47:34 AM 348 1.0 4.0 39 44 75.0 63.6 29.867 20.14 0.0 0 0.00 0.00 0.00 0.00
09/22/19 4:48:21 AM 348 1.0 4.0 39 44 75.0 63.6 29.867 20.14 0.0 0 0.00 0.00 0.00 0.00
09/22/19 4:49:33 AM 348 1.0 4.0 39 44 75.0 63.6 29.869 20.14 0.0 0 0.00 0.00 0.00 0.00
09/22/19 4:50:27 AM 348 2.0 4.0 39 44 75.0 63.5 29.871 20.14 0.0 0 0.00 0.00 0.00 0.00
09/22/19 4:51:18 AM 348 1.0 4.0 39 44 75.0 63.5 29.871 20.14 0.0 0 0.00 0.00 0.00 0.00
09/22/19 4:52:29 AM 348 2.0 4.0 39 44 74.9 63.5 29.870 20.14 0.0 0 0.00 0.00 0.00 0.00
09/22/19 4:53:16 AM 348 1.0 4.0 39 44 74.9 63.5 29.870 20.14 0.0 0 0.00 0.00 0.00 0.00
09/22/19 4:54:31 AM 348 2.0 4.0 39 43 74.9 63.5 29.870 20.14 0.0 0 0.00 0.00 0.00 0.00
09/22/19 4:55:23 AM 348 2.0 4.0 39 43 74.9 63.5 29.870 20.14 0.0 0 0.00 0.00 0.00 0.00
09/22/19 4:56:17 AM 348 2.0 4.0 39 43 74.9 63.5 29.871 20.14 0.0 0 0.00 0.00 0.00 0.00
09/22/19 4:57:27 AM 348 3.0 4.0 39 43 74.9 63.4 29.875 20.14 0.0 0 0.00 0.00 0.00 0.00
09/22/19 4:58:20 AM 348 3.0 4.0 39 43 74.9 63.4 29.875 20.14 0.0 0 0.00 0.00 0.00 0.00
09/22/19 4:59:28 AM 348 2.0 4.0 39 43 74.9 63.4 29.874 20.14 0.0 0 0.00 0.00 0.00 0.00
09/22/19 5:00:21 AM 348 2.0 4.0 39 43 74.9 63.3 29.874 20.14 0.0 0 0.00 0.00 0.00 0.00
09/22/19 5:01:32 AM 348 2.0 4.0 39 43 74.9 63.3 29.874 20.14 0.0 0 0.00 0.00 0.00 0.00
09/22/19 5:02:24 AM 348 2.0 4.0 39 43 74.9 63.2 29.873 20.14 0.0 0 0.00 0.00 0.00 0.00
09/22/19 5:03:18 AM 348 2.0 4.0 39 43 74.9 63.2 29.873 20.14 0.0 0 0.00 0.00 0.00 0.00
09/22/19 5:04:24 AM 348 1.0 4.0 39 43 74.9 63.2 29.873 20.14 0.0 0 0.00 0.00 0.00 0.00
09/22/19 5:05:36 AM 348 2.0 4.0 39 42 74.9 63.2 29.874 20.14 0.0 0 0.00 0.00 0.00 0.00
09/22/19 5:06:26 AM 348 2.0 4.0 39 42 74.8 63.2 29.874 20.14 0.0 0 0.00 0.00 0.00 0.00
09/22/19 5:07:17 AM 348 3.0 4.0 39 42 74.8 63.2 29.874 20.14 0.0 0 0.00 0.00 0.00 0.00
09/22/19 5:08:29 AM 348 3.0 4.0 39 42 74.8 63.3 29.875 20.14 0.0 0 0.00 0.00 0.00 0.00
09/22/19 5:09:17 AM 348 3.0 4.0 39 42 74.8 63.5 29.875 20.14 0.0 0 0.00 0.00 0.00 0.00
09/22/19 5:10:30 AM 348 3.0 4.0 39 43 74.8 63.6 29.874 20.14 0.0 0 0.00 0.00 0.00 0.00
09/22/19 5:11:23 AM 348 3.0 4.0 39 43 74.8 63.7 29.874 20.14 0.0 0 0.00 0.00 0.00 0.00
09/22/19 5:12:36 AM 348 2.0 4.0 39 43 74.8 63.8 29.876 20.14 0.0 0 0.00 0.00 0.00 0.00
09/22/19 5:13:29 AM 348 2.0 4.0 39 43 74.8 63.8 29.875 20.14 0.0 0 0.00 0.00 0.00 0.00
09/22/19 5:14:19 AM 348 2.0 4.0 39 43 74.8 63.9 29.875 20.14 0.0 0 0.00 0.00 0.00 0.00
09/22/19 5:15:28 AM 348 2.0 4.0 39 43 74.7 63.9 29.874 20.14 0.0 0 0.00 0.00 0.00 0.00
09/22/19 5:16:19 AM 348 1.0 4.0 39 43 74.7 64.0 29.874 20.14 0.0 0 0.00 0.00 0.00 0.00
09/22/19 5:17:31 AM 348 2.0 4.0 39 42 74.7 64.1 29.878 20.14 0.0 0 0.00 0.00 0.00 0.00
09/22/19 5:18:24 AM 348 3.0 4.0 39 42 74.7 64.1 29.878 20.14 0.0 0 0.00 0.00 0.00 0.00
09/22/19 5:19:15 AM 347 2.0 4.0 39 42 74.8 64.2 29.875 20.14 0.0 0 0.00 0.00 0.00 0.00
09/22/19 5:20:24 AM 347 2.0 4.0 39 42 74.7 64.4 29.875 20.14 0.0 0 0.00 0.00 0.00 0.00
09/22/19 5:21:16 AM 347 3.0 4.0 39 42 74.7 64.4 29.875 20.14 0.0 0 0.00 0.00 0.00 0.00
09/22/19 5:22:28 AM 347 2.0 4.0 39 42 74.7 64.6 29.877 20.14 0.0 0 0.00 0.00 0.00 0.00
09/22/19 5:23:19 AM 347 1.0 4.0 39 42 74.7 64.7 29.877 20.14 0.0 0 0.00 0.00 0.00 0.00
09/22/19 5:24:31 AM 347 2.0 4.0 39 42 74.7 64.8 29.871 20.14 0.0 0 0.00 0.00 0.00 0.00
09/22/19 5:25:22 AM 347 3.0 4.0 39 42 74.7 64.9 29.871 20.14 0.0 0 0.00 0.00 0.00 0.00
09/22/19 5:26:34 AM 347 2.0 4.0 39 42 74.7 65.0 29.875 20.14 0.0 0 0.00 0.00 0.00 0.00
09/22/19 5:27:28 AM 347 3.0 4.0 39 42 74.7 65.1 29.874 20.14 0.0 0 0.00 0.00 0.00 0.00
09/22/19 5:28:18 AM 347 2.0 4.0 39 42 74.7 65.2 29.874 20.14 0.0 0 0.00 0.00 0.00 0.00
09/22/19 5:29:30 AM 347 2.0 4.0 39 42 74.7 65.4 29.875 20.14 0.0 0 0.00 0.00 0.00 0.00
09/22/19 5:30:24 AM 347 3.0 4.0 39 42 74.7 65.5 29.875 20.14 0.0 0 0.00 0.00 0.00 0.00
09/22/19 5:31:32 AM 347 2.0 4.0 39 41 74.7 65.7 29.876 20.14 0.0 0 0.00 0.00 0.00 0.00
09/22/19 5:32:23 AM 347 2.0 4.0 39 41 74.7 65.8 29.876 20.14 0.0 0 0.00 0.00 0.00 0.00
09/22/19 5:33:17 AM 347 1.0 4.0 39 41 74.7 65.9 29.875 20.14 0.0 0 0.00 0.00 0.00 0.00
09/22/19 5:34:29 AM 347 1.0 4.0 39 40 74.7 66.0 29.874 20.14 0.0 0 0.00 0.00 0.00 0.00
09/22/19 5:35:23 AM 347 1.0 4.0 39 40 74.7 66.1 29.874 20.14 0.0 0 0.00 0.00 0.00 0.00
09/22/19 5:36:29 AM 347 3.0 4.0 39 40 74.7 66.2 29.874 20.14 0.0 0 0.00 0.00 0.00 0.00
09/22/19 5:37:23 AM 347 2.0 4.0 39 39 74.7 66.3 29.874 20.14 0.0 0 0.00 0.00 0.00 0.00
09/22/19 5:38:34 AM 347 1.0 4.0 39 39 74.7 66.5 29.877 20.14 0.0 0 0.00 0.00 0.00 0.00
09/22/19 5:39:27 AM 347 0.0 4.0 39 39 74.7 66.6 29.874 20.14 0.0 0 0.00 0.00 0.00 0.00
09/22/19 5:40:17 AM 347 0.0 4.0 39 39 74.7 66.6 29.874 20.14 0.0 0 0.00 0.00 0.00 0.00
09/22/19 5:41:26 AM 347 0.0 4.0 39 41 74.7 66.7 29.875 20.14 0.0 0 0.00 0.00 0.00 0.00
09/22/19 5:42:17 AM 347 0.0 4.0 39 41 74.7 66.7 29.875 20.14 0.0 0 0.00 0.00 0.00 0.00
09/22/19 5:43:31 AM 347 0.0 4.0 39 41 74.6 66.7 29.874 20.14 0.0 0 0.00 0.00 0.00 0.00
09/22/19 5:44:24 AM 347 0.0 4.0 39 41 74.6 66.7 29.874 20.14 0.0 0 0.00 0.00 0.00 0.00
09/22/19 5:45:38 AM 347 1.0 4.0 39 40 74.7 66.6 29.870 20.14 0.0 0 0.00 0.00 0.00 0.00
09/22/19 5:46:28 AM 347 2.0 4.0 39 40 74.7 66.6 29.873 20.14 0.0 0 0.00 0.00 0.00 0.00
09/22/19 5:47:15 AM 347 2.0 4.0 39 39 74.7 66.6 29.873 20.14 0.0 0 0.00 0.00 0.00 0.00
09/22/19 5:48:27 AM 347 0.0 4.0 39 38 74.6 66.5 29.872 20.14 0.0 0 0.00 0.00 0.00 0.00
09/22/19 5:49:21 AM 347 0.0 4.0 39 38 74.6 66.4 29.872 20.14 0.0 0 0.00 0.00 0.00 0.00
09/22/19 5:50:32 AM 347 2.0 4.0 39 38 74.6 66.4 29.872 20.14 0.0 0 0.00 0.00 0.00 0.00
09/22/19 5:51:25 AM 347 1.0 4.0 39 38 74.6 66.3 29.873 20.14 0.0 0 0.00 0.00 0.00 0.00
09/22/19 5:52:33 AM 347 2.0 4.0 39 38 74.6 66.2 29.872 20.14 0.0 0 0.00 0.00 0.00 0.00
09/22/19 5:53:25 AM 347 2.0 4.0 39 38 74.6 66.1 29.871 20.14 0.0 0 0.00 0.00 0.00 0.00
09/22/19 5:54:19 AM 347 1.0 4.0 39 37 74.6 66.0 29.871 20.14 0.0 0 0.00 0.00 0.00 0.00
09/22/19 5:55:32 AM 347 2.0 4.0 39 37 74.6 65.9 29.872 20.14 0.0 0 0.00 0.00 0.00 0.00
09/22/19 5:56:22 AM 347 1.0 4.0 39 37 74.6 65.8 29.872 20.14 0.0 0 0.00 0.00 0.00 0.00
09/22/19 5:57:31 AM 347 2.0 4.0 39 37 74.6 65.7 29.871 20.14 0.0 0 0.00 0.00 0.00 0.00
09/22/19 5:58:21 AM 347 2.0 4.0 39 38 74.6 65.6 29.871 20.14 0.0 0 0.00 0.00 0.00 0.00
09/22/19 5:59:36 AM 347 1.0 4.0 39 37 74.6 65.5 29.872 20.14 0.0 0 0.00 0.00 0.00 0.00
09/22/19 6:00:28 AM 347 2.0 4.0 39 37 74.6 65.4 29.873 20.14 0.0 0 0.00 0.00 0.00 0.00
09/22/19 6:01:22 AM 347 2.0 4.0 39 37 74.6 65.4 29.873 20.14 0.0 0 0.00 0.00 0.00 0.00
09/22/19 6:02:32 AM 347 2.0 4.0 39 36 74.6 65.3 29.873 20.14 0.0 0 0.00 0.00 0.00 0.00
09/22/19 6:03:20 AM 347 1.0 4.0 39 36 74.6 65.3 29.873 20.14 0.0 0 0.00 0.00 0.00 0.00
09/22/19 6:04:32 AM 347 0.0 4.0 39 36 74.6 65.3 29.872 20.14 0.0 0 0.00 0.00 0.00 0.00
09/22/19 6:05:25 AM 347 1.0 4.0 39 37 74.6 65.3 29.872 20.14 0.0 0 0.00 0.00 0.00 0.00
09/22/19 6:06:16 AM 347 1.0 4.0 39 37 74.6 65.3 29.875 20.14 0.0 0 0.00 0.00 0.00 0.00
09/22/19 6:07:28 AM 347 1.0 4.0 39 37 74.6 65.3 29.874 20.14 0.0 0 0.00 0.00 0.00 0.00
09/22/19 6:08:16 AM 347 2.0 4.0 39 37 74.6 65.3 29.874 20.14 0.0 0 0.00 0.00 0.00 0.00
09/22/19 6:09:30 AM 346 1.0 4.0 39 39 74.6 65.3 29.870 20.14 0.0 0 0.00 0.00 0.00 0.00
09/22/19 6:10:23 AM 346 0.0 4.0 39 39 74.6 65.3 29.870 20.14 0.0 0 0.00 0.00 0.00 0.00
09/22/19 6:11:33 AM 346 0.0 4.0 39 39 74.6 65.2 29.871 20.14 0.0 0 0.00 0.00 0.00 0.00
09/22/19 6:12:27 AM 346 0.0 4.0 39 38 74.6 65.2 29.874 20.14 0.0 0 0.00 0.00 0.00 0.00
09/22/19 6:13:18 AM 346 0.0 4.0 39 38 74.6 65.2 29.874 20.14 0.0 0 0.00 0.00 0.00 0.00
09/22/19 6:14:25 AM 346 0.0 4.0 39 38 74.6 65.1 29.875 20.14 0.0 0 0.00 0.00 0.00 0.00
09/22/19 6:15:19 AM 346 1.0 4.0 39 38 74.6 65.1 29.875 20.14 0.0 0 0.00 0.00 0.00 0.00
09/22/19 6:16:30 AM 346 1.0 4.0 39 38 74.5 65.0 29.874 20.14 0.0 0 0.00 0.00 0.00 0.00
09/22/19 6:17:23 AM 346 1.0 4.0 39 38 74.5 64.9 29.874 20.14 0.0 0 0.00 0.00 0.00 0.00
09/22/19 6:18:16 AM 346 1.0 4.0 39 37 74.6 64.9 29.873 20.14 0.0 0 0.00 0.00 0.00 0.00
09/22/19 6:19:24 AM 346 0.0 4.0 39 37 74.6 64.8 29.874 20.14 0.0 0 0.00 0.00 0.00 0.00
09/22/19 6:20:36 AM 346 0.0 4.0 39 38 74.5 64.8 29.875 20.14 0.0 0 0.00 0.00 0.00 0.00
09/22/19 6:21:29 AM 346 0.0 4.0 39 38 74.6 64.7 29.876 20.14 0.0 0 0.00 0.00 0.00 0.00
09/22/19 6:22:22 AM 346 0.0 4.0 39 38 74.6 64.6 29.876 20.14 0.0 0 0.00 0.00 0.00 0.00
09/22/19 6:23:33 AM 346 0.0 4.0 39 38 74.5 64.5 29.873 20.14 0.0 0 0.00 0.00 0.00 0.00
09/22/19 6:24:21 AM 346 0.0 4.0 39 38 74.5 64.5 29.873 20.14 0.0 0 0.00 0.00 0.00 0.00
09/22/19 6:25:36 AM 346 0.0 4.0 39 38 74.5 64.4 29.874 20.14 0.0 0 0.00 0.00 0.00 0.00
09/22/19 6:26:27 AM 346 2.0 4.0 39 37 74.5 64.4 29.874 20.14 0.0 0 0.00 0.00 0.00 0.00
09/22/19 6:27:19 AM 346 2.0 4.0 39 37 74.5 64.4 29.874 20.14 0.0 0 0.00 0.00 0.00 0.00
09/22/19 6:28:32 AM 346 2.0 4.0 39 37 74.4 64.4 29.875 20.14 0.0 0 0.00 0.00 0.00 0.00
09/22/19 6:29:25 AM 346 2.0 4.0 39 37 74.4 64.4 29.875 20.14 0.0 0 0.00 0.00 0.00 0.00
09/22/19 6:30:33 AM 346 2.0 4.0 39 37 74.5 64.4 29.875 20.14 0.0 0 0.00 0.00 0.00 0.00
09/22/19 6:31:24 AM 346 2.0 4.0 39 37 74.4 64.5 29.874 20.14 0.0 0 0.00 0.00 0.00 0.00
09/22/19 6:32:17 AM 346 2.0 4.0 39 37 74.4 64.5 29.874 20.14 0.0 0 0.00 0.00 0.00 0.00
09/22/19 6:33:27 AM 346 1.0 4.0 39 36 74.5 64.6 29.874 20.14 0.0 5 0.00 0.00 0.00 0.00
09/22/19 6:34:20 AM 346 0.0 4.0 39 36 74.5 64.6 29.874 20.14 0.0 5 0.00 0.00 0.00 0.00
09/22/19 6:35:27 AM 346 0.0 4.0 39 36 74.4 64.6 29.873 20.14 0.0 5 0.00 0.00 0.00 0.00
09/22/19 6:36:21 AM 346 0.0 4.0 39 37 74.4 64.7 29.873 20.14 0.0 5 0.00 0.00 0.00 0.00
09/22/19 6:37:31 AM 346 0.0 4.0 39 37 74.5 64.7 29.874 20.14 0.0 7 0.00 0.00 0.00 0.00
09/22/19 6:38:25 AM 346 0.0 4.0 39 37 74.4 64.7 29.874 20.14 0.0 7 0.00 0.00 0.00 0.00
09/22/19 6:39:15 AM 346 0.0 4.0 39 37 74.4 64.7 29.877 20.14 0.0 7 0.00 0.00 0.00 0.00
09/22/19 6:40:24 AM 346 1.0 4.0 39 37 74.4 64.7 29.876 20.14 0.0 7 0.00 0.00 0.00 0.00
09/22/19 6:41:16 AM 346 0.0 4.0 39 37 74.5 64.7 29.875 20.14 0.0 9 0.00 0.00 0.00 0.00
09/22/19 6:42:28 AM 346 0.0 4.0 39 36 74.5 64.7 29.876 20.14 0.0 9 0.00 0.00 0.00 0.00
09/22/19 6:43:19 AM 346 0.0 4.0 39 36 74.5 64.7 29.876 20.14 0.0 9 0.00 0.00 0.00 0.00
09/22/19 6:44:33 AM 346 0.0 4.0 39 36 74.5 64.7 29.876 20.14 0.0 11 0.00 0.00 0.00 0.00
09/22/19 6:45:26 AM 346 0.0 4.0 39 37 74.5 64.7 29.877 20.14 0.0 12 0.00 0.00 0.00 0.00
09/22/19 6:46:32 AM 346 0.0 4.0 39 37 74.5 64.7 29.877 20.14 0.0 12 0.00 0.00 0.00 0.00
09/22/19 6:47:25 AM 346 0.0 4.0 39 37 74.5 64.6 29.877 20.14 0.0 14 0.00 0.00 0.00 0.00
09/22/19 6:48:16 AM 346 0.0 4.0 39 37 74.5 64.6 29.877 20.14 0.0 14 0.00 0.00 0.00 0.00
09/22/19 6:49:31 AM 346 0.0 4.0 39 37 74.5 64.6 29.880 20.14 0.0 16 0.00 0.00 0.00 0.00
09/22/19 6:50:23 AM 346 0.0 4.0 39 36 74.5 64.6 29.880 20.14 0.0 16 0.00 0.00 0.00 0.00
09/22/19 6:51:32 AM 346 0.0 4.0 39 36 74.5 64.6 29.880 20.14 0.0 18 0.00 0.00 0.00 0.00
09/22/19 6:52:23 AM 346 0.0 4.0 39 36 74.5 64.5 29.880 20.14 0.0 19 0.00 0.00 0.00 0.00
09/22/19 6:53:16 AM 346 3.0 4.0 39 36 74.6 64.5 29.879 20.14 0.0 19 0.00 0.00 0.00 0.00
09/22/19 6:54:27 AM 347 2.0 4.0 39 36 74.6 64.5 29.877 20.14 0.0 21 0.00 0.00 0.00 0.00
09/22/19 6:55:20 AM 346 1.0 4.0 39 36 74.6 64.5 29.877 20.14 0.0 23 0.00 0.00 0.00 0.00
09/22/19 6:56:28 AM 347 0.0 4.0 39 36 74.6 64.4 29.880 20.14 0.0 25 0.00 0.00 0.00 0.00
09/22/19 6:57:18 AM 347 0.0 4.0 39 36 74.6 64.4 29.880 20.14 0.0 25 0.00 0.00 0.00 0.00
09/22/19 6:58:31 AM 347 3.0 4.0 39 36 74.6 64.4 29.878 20.14 0.0 26 0.00 0.00 0.00 0.00
09/22/19 6:59:22 AM 346 3.0 4.0 39 36 74.6 64.5 29.878 20.14 0.0 28 0.00 0.00 0.00 0.00
09/22/19 7:00:34 AM 346 1.0 4.0 39 36 74.6 64.5 29.879 20.14 0.0 32 0.00 0.00 0.00 0.00
09/22/19 7:01:28 AM 346 2.0 4.0 39 36 74.6 64.6 29.880 20.14 0.0 33 0.00 0.00 0.00 0.00
09/22/19 7:02:36 AM 346 1.0 4.0 39 35 74.6 64.7 29.879 20.14 0.0 33 0.00 0.00 0.00 0.00
09/22/19 7:03:27 AM 346 0.0 4.0 39 35 74.6 64.8 29.876 20.14 0.0 37 0.00 0.00 0.00 0.00
09/22/19 7:04:20 AM 346 0.0 4.0 39 35 74.6 64.9 29.876 20.14 0.0 39 0.00 0.00 0.00 0.00
09/22/19 7:05:34 AM 346 0.0 4.0 39 35 74.6 65.0 29.878 20.14 0.0 40 0.00 0.00 0.00 0.00
09/22/19 7:06:24 AM 347 0.0 4.0 39 36 74.6 65.0 29.879 20.14 0.0 42 0.00 0.00 0.00 0.00
09/22/19 7:07:33 AM 347 0.0 4.0 39 36 74.6 65.1 29.879 20.14 0.0 44 0.00 0.00 0.00 0.00
09/22/19 7:08:27 AM 347 0.0 4.0 39 36 74.6 65.1 29.879 20.14 0.0 46 0.00 0.00 0.00 0.00
09/22/19 7:09:18 AM 346 0.0 4.0 39 36 74.6 65.2 29.879 20.14 0.0 47 0.00 0.00 0.00 0.00
09/22/19 7:10:30 AM 346 0.0 4.0 39 36 74.6 65.2 29.880 20.14 0.0 49 0.00 0.00 0.00 0.00
09/22/19 7:11:22 AM 346 0.0 4.0 39 36 74.6 65.3 29.880 20.14 0.0 49 0.00 0.00 0.00 0.00
09/22/19 7:12:30 AM 346 0.0 4.0 39 36 74.6 65.4 29.881 20.14 0.0 49 0.00 0.00 0.00 0.00
09/22/19 7:13:23 AM 346 1.0 4.0 39 36 74.6 65.4 29.881 20.14 0.0 47 0.00 0.00 0.00 0.00
09/22/19 7:14:33 AM 360 1.0 4.0 39 36 74.6 65.5 29.883 20.14 0.0 47 0.00 0.00 0.00 0.00
09/22/19 7:15:27 AM 360 0.0 4.0 39 36 74.6 65.6 29.884 20.14 0.0 46 0.00 0.00 0.00 0.00
09/22/19 7:16:18 AM 360 0.0 4.0 39 35 74.6 65.7 29.884 20.14 0.0 46 0.00 0.00 0.00 0.00
09/22/19 7:17:31 AM 360 0.0 4.0 39 35 74.6 65.7 29.883 20.14 0.0 49 0.00 0.00 0.00 0.00
09/22/19 7:18:19 AM 360 3.0 4.0 39 35 74.6 65.8 29.883 20.14 0.0 54 0.00 0.00 0.00 0.00
09/22/19 7:19:30 AM 360 2.0 4.0 39 36 74.6 65.8 29.884 20.14 0.0 58 0.00 0.00 0.00 0.00
09/22/19 7:20:23 AM 360 1.0 4.0 39 36 74.6 65.9 29.884 20.14 0.0 56 0.00 0.00 0.00 0.00
09/22/19 7:21:34 AM 360 1.0 4.0 39 35 74.6 66.0 29.883 20.14 0.0 56 0.00 0.00 0.00 0.00
09/22/19 7:22:27 AM 360 1.0 4.0 39 34 74.6 66.1 29.884 20.14 0.0 56 0.00 0.00 0.00 0.00
09/22/19 7:23:34 AM 360 1.0 4.0 39 35 74.6 66.2 29.885 20.14 0.0 58 0.00 0.00 0.00 0.00
09/22/19 7:24:26 AM 360 2.0 4.0 39 35 74.6 66.3 29.883 20.14 0.0 58 0.00 0.00 0.00 0.00
09/22/19 7:25:20 AM 360 1.0 4.0 39 35 74.6 66.4 29.883 20.14 0.0 60 0.00 0.00 0.00 0.00
09/22/19 7:26:29 AM 360 0.0 4.0 39 36 74.6 66.5 29.883 20.14 0.0 65 0.00 0.00 0.00 0.00
09/22/19 7:27:24 AM 360 2.0 4.0 39 36 74.6 66.6 29.883 20.14 0.0 70 0.00 0.00 0.00 0.00
09/22/19 7:28:30 AM 360 3.0 4.0 39 34 74.6 66.7 29.884 20.14 0.0 72 0.00 0.00 0.00 0.00
09/22/19 7:29:23 AM 56 3.0 4.0 39 33 74.6 66.9 29.884 20.14 0.0 77 0.00 0.00 0.00 0.00
09/22/19 7:30:35 AM 56 3.0 4.0 39 33 74.6 67.2 29.884 20.14 0.0 93 0.00 0.00 0.00 0.00
09/22/19 7:31:29 AM 56 2.0 4.0 39 34 74.6 67.4 29.886 20.14 0.0 100 0.00 0.00 0.00 0.00
09/22/19 7:32:20 AM 56 1.0 4.0 39 34 74.6 67.5 29.886 20.14 0.0 97 0.00 0.00 0.00 0.00
09/22/19 7:33:33 AM 56 0.0 4.0 39 35 74.5 67.6 29.887 20.14 0.0 98 0.00 0.00 0.00 0.00
09/22/19 7:34:19 AM 56 1.0 4.0 39 35 74.5 67.7 29.887 20.14 0.0 90 0.00 0.00 0.00 0.00
09/22/19 7:35:34 AM 56 0.0 4.0 39 35 74.6 67.7 29.884 20.14 0.0 77 0.00 0.00 0.00 0.00
09/22/19 7:36:25 AM 56 0.0 4.0 39 35 74.5 67.8 29.884 20.14 0.0 79 0.00 0.00 0.00 0.00
09/22/19 7:37:16 AM 56 0.0 4.0 39 34 74.5 67.7 29.889 20.14 0.0 77 0.00 0.00 0.00 0.00
09/22/19 7:38:28 AM 56 0.0 4.0 39 34 74.5 67.8 29.887 20.14 0.0 58 0.00 0.00 0.00 0.00
09/22/19 7:39:16 AM 56 0.0 4.0 39 34 74.5 67.9 29.887 20.14 0.0 56 0.00 0.00 0.00 0.00
09/22/19 7:40:28 AM 56 0.0 4.0 39 34 74.4 67.9 29.888 20.14 0.0 58 0.00 0.00 0.00 0.00
09/22/19 7:41:22 AM 56 0.0 4.0 39 36 74.4 68.0 29.888 20.14 0.0 63 0.00 0.00 0.00 0.00
09/22/19 7:42:32 AM 56 0.0 4.0 39 37 74.5 68.0 29.886 20.14 0.0 70 0.00 0.00 0.00 0.00
09/22/19 7:43:24 AM 56 0.0 4.0 39 37 74.5 68.1 29.886 20.14 0.0 81 0.00 0.00 0.00 0.00
09/22/19 7:44:17 AM 342 2.0 4.0 39 37 74.4 68.1 29.886 20.14 0.0 86 0.00 0.00 0.00 0.00
09/22/19 7:45:25 AM 342 2.0 4.0 39 38 74.4 68.2 29.891 20.14 0.0 100 0.00 0.00 0.00 0.00
09/22/19 7:46:16 AM 342 0.0 4.0 39 38 74.3 68.2 29.886 20.14 0.0 100 0.00 0.00 0.00 0.00
09/22/19 7:47:28 AM 342 0.0 4.0 39 38 74.3 68.3 29.885 20.14 0.0 100 0.00 0.00 0.00 0.00
09/22/19 7:48:20 AM 342 0.0 4.0 39 37 74.3 68.3 29.885 20.14 0.0 127 0.00 0.00 0.00 0.00
09/22/19 7:49:35 AM 342 0.0 4.0 39 37 74.3 68.4 29.884 20.14 0.0 153 0.00 0.00 0.00 0.00
09/22/19 7:50:22 AM 342 0.0 4.0 39 36 74.3 68.4 29.884 20.14 0.0 162 0.00 0.00 0.00 0.00
09/22/19 7:51:34 AM 342 0.0 4.0 39 37 74.2 68.5 29.884 20.14 0.0 179 0.00 0.00 0.00 0.00
09/22/19 7:52:27 AM 342 0.0 4.0 39 37 74.2 68.5 29.886 20.14 0.0 199 0.00 0.00 0.00 0.00
09/22/19 7:53:19 AM 342 0.0 4.0 39 38 74.2 68.6 29.886 20.14 0.0 200 0.00 0.00 0.00 0.00
09/22/19 7:54:31 AM 342 1.0 4.0 39 39 74.2 68.7 29.888 20.14 0.0 204 0.00 0.00 0.00 0.00
09/22/19 7:55:22 AM 342 1.0 4.0 39 39 74.2 68.8 29.888 20.14 0.0 206 0.00 0.00 0.00 0.00
09/22/19 7:56:34 AM 342 1.0 4.0 39 40 74.2 68.9 29.889 20.14 0.0 213 0.00 0.00 0.00 0.00
09/22/19 7:57:26 AM 342 0.0 4.0 39 39 74.2 69.0 29.889 20.14 0.0 216 0.00 0.00 0.00 0.00
09/22/19 7:58:18 AM 342 0.0 4.0 39 39 74.2 69.2 29.889 20.14 0.0 216 0.00 0.00 0.00 0.00
09/22/19 7:59:30 AM 342 1.0 4.0 39 39 74.2 69.3 29.889 20.14 0.0 230 0.00 0.00 0.00 0.00
09/22/19 8:00:21 AM 342 0.0 4.0 39 39 74.2 69.5 29.889 20.14 0.0 230 0.00 0.00 0.00 0.00
09/22/19 8:01:31 AM 342 0.0 4.0 39 39 74.3 69.6 29.890 20.14 0.0 239 0.00 0.00 0.00 0.00
09/22/19 8:02:22 AM 342 0.0 4.0 39 39 74.3 69.8 29.890 20.14 0.0 237 0.00 0.00 0.00 0.00
09/22/19 8:03:33 AM 342 0.0 4.0 39 38 74.2 70.1 29.889 20.14 0.0 221 0.00 0.00 0.00 0.00
09/22/19 8:04:26 AM 342 0.0 4.0 39 37 74.3 70.2 29.891 20.14 0.5 236 0.00 0.00 0.00 0.00
09/22/19 8:05:19 AM 342 0.0 4.0 39 36 74.3 70.4 29.891 20.14 0.5 257 0.00 0.00 0.00 0.00
09/22/19 8:06:27 AM 344 0.0 4.0 39 36 74.2 70.7 29.894 20.14 0.5 260 0.00 0.00 0.00 0.00
09/22/19 8:07:20 AM 344 0.0 4.0 39 34 74.2 70.8 29.894 20.14 0.5 260 0.00 0.00 0.00 0.00
09/22/19 8:08:32 AM 344 0.0 4.0 39 34 74.3 71.1 29.893 20.14 0.5 264 0.00 0.00 0.00 0.00
09/22/19 8:09:23 AM 344 0.0 4.0 39 34 74.3 71.3 29.893 20.14 0.5 264 0.00 0.00 0.00 0.00
09/22/19 8:10:16 AM 344 0.0 4.0 39 33 74.3 71.6 29.894 20.14 0.5 239 0.00 0.00 0.00 0.00
09/22/19 8:11:24 AM 344 0.0 4.0 39 32 74.3 71.9 29.895 20.14 0.5 239 0.00 0.00 0.00 0.00
09/22/19 8:12:16 AM 344 0.0 4.0 39 32 74.3 72.1 29.895 20.14 0.5 253 0.00 0.00 0.00 0.00
09/22/19 8:13:28 AM 345 0.0 4.0 39 32 74.3 72.3 29.899 20.14 0.5 253 0.00 0.00 0.00 0.00
09/22/19 8:14:20 AM 345 0.0 4.0 39 32 74.3 72.5 29.899 20.14 0.6 267 0.00 0.00 0.00 0.00
09/22/19 8:15:35 AM 26 0.0 4.0 39 33 74.3 72.7 29.896 20.14 0.6 239 0.00 0.00 0.00 0.00
09/22/19 8:16:27 AM 26 2.0 4.0 39 33 74.3 72.8 29.898 20.14 0.6 214 0.00 0.00 0.00 0.00
09/22/19 8:17:35 AM 26 2.0 4.0 39 33 74.4 73.0 29.898 20.14 0.6 190 0.00 0.00 0.00 0.00
09/22/19 8:18:26 AM 26 1.0 4.0 39 33 74.4 73.1 29.897 20.14 0.6 178 0.00 0.00 0.00 0.00
09/22/19 8:19:19 AM 26 2.0 4.0 39 32 74.4 73.2 29.897 20.14 0.6 202 0.00 0.00 0.00 0.00
09/22/19 8:20:30 AM 27 2.0 4.0 39 31 74.4 73.3 29.898 20.14 0.6 183 0.00 0.00 0.00 0.00
09/22/19 8:21:24 AM 89 3.0 4.0 39 32 74.4 73.5 29.898 20.14 0.6 185 0.00 0.00 0.00 0.00
09/22/19 8:22:31 AM 89 2.0 4.0 39 32 74.4 73.6 29.900 20.14 0.6 199 0.00 0.00 0.00 0.00
09/22/19 8:23:23 AM 89 3.0 4.0 39 32 74.4 73.7 29.900 20.14 0.6 178 0.00 0.00 0.00 0.00
09/22/19 8:24:17 AM 89 2.0 4.0 39 32 74.4 73.8 29.899 20.14 0.7 236 0.00 0.00 0.00 0.00
09/22/19 8:25:29 AM 89 2.0 4.0 39 32 74.4 73.9 29.899 20.14 0.7 220 0.00 0.00 0.00 0.00
09/22/19 8:26:20 AM 89 2.0 4.0 39 32 74.4 73.9 29.899 20.14 0.7 227 0.00 0.00 0.00 0.00
09/22/19 8:27:29 AM 89 3.0 4.0 39 32 74.4 74.0 29.899 20.14 0.7 202 0.00 0.00 0.00 0.00
09/22/19 8:28:20 AM 89 2.0 4.0 39 32 74.4 74.0 29.899 20.14 0.7 237 0.00 0.00 0.00 0.00
09/22/19 8:29:30 AM 89 2.0 4.0 39 33 74.5 74.1 29.899 20.14 0.7 239 0.00 0.00 0.00 0.00
09/22/19 8:30:24 AM 89 3.0 4.0 39 33 74.5 74.2 29.899 20.14 0.7 239 0.00 0.00 0.00 0.00
09/22/19 8:31:34 AM 89 3.0 4.0 39 33 74.5 74.2 29.903 20.14 0.8 274 0.00 0.00 0.00 0.00
09/22/19 8:32:28 AM 89 3.0 4.0 39 32 74.5 74.3 29.902 20.14 0.8 274 0.00 0.00 0.00 0.00
09/22/19 8:33:35 AM 89 3.0 4.0 39 32 74.5 74.3 29.903 20.14 0.8 301 0.00 0.00 0.00 0.00
09/22/19 8:34:26 AM 89 2.0 4.0 39 32 74.5 74.4 29.901 20.14 0.8 297 0.00 0.00 0.00 0.00
09/22/19 8:35:19 AM 89 0.0 4.0 39 32 74.5 74.5 29.901 20.14 0.8 301 0.00 0.00 0.00 0.00
09/22/19 8:36:31 AM 89 2.0 4.0 39 32 74.5 74.6 29.906 20.14 0.8 302 0.00 0.00 0.00 0.00
09/22/19 8:37:23 AM 89 1.0 4.0 39 32 74.5 74.6 29.906 20.14 0.9 304 0.00 0.00 0.00 0.00
09/22/19 8:38:31 AM 89 1.0 4.0 39 32 74.4 74.8 29.904 20.14 0.9 308 0.00 0.00 0.00 0.00
09/22/19 8:39:22 AM 89 2.0 4.0 39 32 74.4 74.8 29.904 20.14 0.9 297 0.00 0.00 0.00 0.00
09/22/19 8:40:37 AM 89 1.0 4.0 39 32 74.5 75.0 29.905 20.14 0.9 288 0.00 0.00 0.00 0.00
09/22/19 8:41:28 AM 89 2.0 4.0 39 31 74.5 75.0 29.908 20.14 0.9 338 0.00 0.00 0.00 0.00
09/22/19 8:42:20 AM 89 2.0 4.0 39 31 74.5 75.1 29.908 20.14 0.9 323 0.00 0.00 0.00 0.00
09/22/19 8:43:29 AM 89 2.0 4.0 39 31 74.5 75.3 29.906 20.14 0.9 316 0.00 0.00 0.00 0.00
09/22/19 8:44:22 AM 89 2.0 4.0 39 30 74.5 75.3 29.906 20.14 0.9 304 0.00 0.00 0.00 0.00
09/22/19 8:45:37 AM 89 1.0 4.0 39 31 74.5 75.5 29.908 20.14 1.0 302 0.00 0.00 0.00 0.00
09/22/19 8:46:26 AM 89 1.0 4.0 39 30 74.5 75.6 29.908 20.14 1.0 302 0.00 0.00 0.00 0.00
09/22/19 8:47:20 AM 89 0.0 4.0 39 31 74.5 75.7 29.908 20.14 1.0 325 0.00 0.00 0.00 0.00
09/22/19 8:48:32 AM 89 2.0 4.0 39 30 74.5 75.8 29.909 20.14 1.0 327 0.00 0.00 0.00 0.00
09/22/19 8:49:18 AM 89 0.0 4.0 39 30 74.5 75.9 29.909 20.14 1.0 279 0.00 0.00 0.00 0.00
09/22/19 8:50:31 AM 89 1.0 4.0 39 30 74.4 76.0 29.906 20.14 1.0 313 0.00 0.00 0.00 0.00
09/22/19 8:51:25 AM 89 0.0 4.0 39 30 74.4 76.1 29.906 20.14 1.1 327 0.00 0.00 0.00 0.00
09/22/19 8:52:16 AM 89 2.0 4.0 39 30 74.4 76.2 29.908 20.14 1.1 316 0.00 0.00 0.00 0.00
09/22/19 8:53:29 AM 89 1.0 4.0 39 29 74.5 76.3 29.908 20.14 1.1 334 0.00 0.00 0.00 0.00
09/22/19 8:54:16 AM 89 2.0 4.0 39 29 74.5 76.4 29.908 20.14 1.1 341 0.00 0.00 0.00 0.00
09/22/19 8:55:30 AM 89 2.0 4.0 39 29 74.4 76.6 29.908 20.14 1.1 339 0.00 0.00 0.00 0.00
09/22/19 8:56:20 AM 89 1.0 4.0 39 29 74.4 76.7 29.908 20.14 1.1 345 0.00 0.00 0.00 0.00
09/22/19 8:57:31 AM 89 1.0 4.0 39 29 74.4 76.8 29.910 20.14 1.2 353 0.00 0.00 0.00 0.00
09/22/19 8:58:24 AM 89 1.0 4.0 39 28 74.4 77.0 29.910 20.14 1.2 352 0.00 0.00 0.00 0.00
09/22/19 8:59:17 AM 89 1.0 4.0 39 28 74.4 77.1 29.912 20.14 1.2 357 0.00 0.00 0.00 0.00
09/22/19 9:00:25 AM 89 0.0 4.0 39 28 74.4 77.2 29.908 20.14 1.2 348 0.00 0.00 0.00 0.00
09/22/19 9:01:19 AM 89 0.0 4.0 39 28 74.4 77.3 29.907 20.14 1.2 348 0.00 0.00 0.00 0.00
09/22/19 9:02:32 AM 89 0.0 4.0 39 28 74.4 77.4 29.908 20.14 1.3 378 0.00 0.00 0.00 0.00
09/22/19 9:03:23 AM 89 0.0 4.0 39 28 74.4 77.6 29.908 20.14 1.3 406 0.00 0.00 0.00 0.00
09/22/19 9:04:36 AM 89 2.0 4.0 39 28 74.4 77.8 29.908 20.14 1.4 413 0.00 0.00 0.00 0.00
09/22/19 9:05:24 AM 89 2.0 4.0 39 26 74.4 77.9 29.908 20.14 1.4 436 0.00 0.00 0.00 0.00
09/22/19 9:06:35 AM 89 1.0 4.0 39 27 74.4 78.1 29.908 20.14 1.4 446 0.00 0.00 0.00 0.00
09/22/19 9:07:26 AM 89 1.0 4.0 39 27 74.5 78.2 29.910 20.14 1.5 464 0.00 0.00 0.00 0.00
09/22/19 9:08:18 AM 89 1.0 4.0 39 28 74.5 78.3 29.910 20.14 1.5 475 0.00 0.00 0.00 0.00
09/22/19 9:09:30 AM 89 3.0 4.0 39 27 74.5 78.6 29.909 20.14 1.5 476 0.00 0.00 0.00 0.00
09/22/19 9:10:18 AM 105 4.0 4.0 39 27 74.5 78.7 29.909 20.14 1.5 473 0.00 0.00 0.00 0.00
09/22/19 9:11:29 AM 106 2.0 4.0 39 25 74.5 78.9 29.908 20.14 1.5 462 0.00 0.00 0.00 0.00
09/22/19 9:12:23 AM 105 4.0 6.0 39 25 74.5 79.0 29.908 20.14 1.6 462 0.00 0.00 0.00 0.00
09/22/19 9:13:34 AM 107 2.0 6.0 39 24 74.5 79.2 29.910 20.14 1.6 455 0.00 0.00 0.00 0.00
09/22/19 9:14:27 AM 106 3.0 6.0 39 24 74.5 79.3 29.910 20.14 1.6 455 0.00 0.00 0.00 0.00
09/22/19 9:15:20 AM 106 2.0 6.0 39 24 74.5 79.4 29.910 20.14 1.6 455 0.00 0.00 0.00 0.00
09/22/19 9:16:27 AM 104 3.0 6.0 39 24 74.5 79.5 29.910 20.14 1.6 446 0.00 0.00 0.00 0.00
09/22/19 9:17:18 AM 104 3.0 6.0 39 23 74.5 79.6 29.910 20.14 1.6 427 0.00 0.00 0.00 0.00
09/22/19 9:18:31 AM 104 3.0 6.0 39 23 74.5 79.7 29.910 20.14 1.7 439 0.00 0.00 0.00 0.00
09/22/19 9:19:24 AM 104 2.0 6.0 39 23 74.5 79.8 29.910 20.14 1.7 452 0.00 0.00 0.00 0.00
09/22/19 9:20:17 AM 104 2.0 6.0 39 24 74.5 79.9 29.910 20.14 1.7 452 0.00 0.00 0.00 0.00
09/22/19 9:21:24 AM 104 2.0 6.0 39 24 74.6 80.0 29.911 20.14 1.7 422 0.00 0.00 0.00 0.00
09/22/19 9:22:15 AM 104 2.0 6.0 39 24 74.6 80.1 29.910 20.14 1.8 497 0.00 0.00 0.00 0.00
09/22/19 9:23:28 AM 104 1.0 6.0 39 24 74.6 80.3 29.913 20.14 1.8 464 0.00 0.00 0.00 0.00
09/22/19 9:24:21 AM 104 4.0 6.0 39 23 74.6 80.5 29.913 20.14 1.8 475 0.00 0.00 0.00 0.00
09/22/19 9:25:36 AM 104 3.0 6.0 39 23 74.6 80.7 29.914 20.14 1.8 476 0.00 0.00 0.00 0.00
09/22/19 9:26:21 AM 104 2.0 6.0 39 22 74.6 80.9 29.914 20.14 1.8 466 0.00 0.00 0.00 0.00
09/22/19 9:27:34 AM 104 2.0 6.0 39 22 74.6 81.0 29.914 20.14 1.8 452 0.00 0.00 0.00 0.00
09/22/19 9:28:27 AM 104 1.0 6.0 39 23 74.6 81.1 29.912 20.14 1.8 452 0.00 0.00 0.00 0.00
09/22/19 9:29:20 AM 104 1.0 6.0 39 23 74.6 81.3 29.912 20.14 1.8 457 0.00 0.00 0.00 0.00
09/22/19 9:30:30 AM 107 2.0 6.0 39 22 74.6 81.4 29.912 20.14 1.8 436 0.00 0.00 0.00 0.00
09/22/19 9:31:22 AM 107 2.0 6.0 39 22 74.6 81.6 29.912 20.14 1.8 434 0.00 0.00 0.00 0.00
09/22/19 9:32:32 AM 107 3.0 6.0 39 22 74.7 81.7 29.916 20.14 1.8 417 0.00 0.00 0.00 0.00
09/22/19 9:33:23 AM 105 3.0 6.0 39 20 74.7 81.8 29.916 20.14 1.8 413 0.00 0.00 0.00 0.00
09/22/19 9:34:36 AM 105 2.0 6.0 39 21 74.7 82.0 29.914 20.14 1.8 404 0.00 0.00 0.00 0.00
09/22/19 9:35:29 AM 105 4.0 6.0 39 20 74.7 82.0 29.915 20.14 1.7 362 0.00 0.00 0.00 0.00
09/22/19 9:36:21 AM 110 3.0 6.0 39 19 74.7 82.1 29.915 20.14 1.7 367 0.00 0.00 0.00 0.00
09/22/19 9:37:28 AM 107 2.0 6.0 39 20 74.7 82.2 29.915 20.14 1.7 341 0.00 0.00 0.00 0.00
09/22/19 9:38:19 AM 101 2.0 6.0 39 20 74.7 82.2 29.915 20.14 1.7 343 0.00 0.00 0.00 0.00
09/22/19 9:39:32 AM 101 1.0 6.0 39 20 74.7 82.3 29.916 20.14 1.7 327 0.00 0.00 0.00 0.00
09/22/19 9:40:23 AM 101 0.0 6.0 39 20 74.7 82.3 29.916 20.14 1.7 313 0.00 0.00 0.00 0.00
09/22/19 9:41:16 AM 101 1.0 6.0 39 20 74.7 82.4 29.915 20.14 1.6 301 0.00 0.00 0.00 0.00
09/22/19 9:42:25 AM 101 2.0 6.0 39 20 74.8 82.5 29.918 20.14 1.7 301 0.00 0.00 0.00 0.00
09/22/19 9:43:16 AM 101 1.0 6.0 39 19 74.7 82.5 29.918 20.14 1.7 332 0.00 0.00 0.00 0.00
09/22/19 9:44:29 AM 101 3.0 6.0 39 20 74.7 82.6 29.917 20.14 1.8 373 0.00 0.00 0.00 0.00
09/22/19 9:45:23 AM 101 2.0 6.0 39 20 74.7 82.7 29.917 20.14 1.8 373 0.00 0.00 0.00 0.00
09/22/19 9:46:36 AM 119 3.0 6.0 39 20 74.7 82.8 29.920 20.14 2.1 468 0.00 0.00 0.00 0.00
09/22/19 9:47:27 AM 119 2.0 6.0 39 20 74.8 82.9 29.919 20.14 2.1 504 0.00 0.00 0.00 0.00
09/22/19 9:48:34 AM 119 1.0 6.0 39 20 74.8 83.0 29.918 20.14 2.3 559 0.00 0.00 0.00 0.00
09/22/19 9:49:25 AM 119 0.0 6.0 39 19 74.8 83.1 29.921 20.14 2.5 601 0.00 0.00 0.00 0.00
09/22/19 9:50:19 AM 119 2.0 6.0 39 19 74.8 83.2 29.921 20.14 2.5 624 0.00 0.00 0.00 0.00
09/22/19 9:51:31 AM 119 0.0 6.0 39 19 74.8 83.4 29.918 20.14 2.5 635 0.00 0.00 0.00 0.00
09/22/19 9:52:22 AM 119 3.0 6.0 39 19 74.8 83.5 29.918 20.14 2.6 635 0.00 0.00 0.00 0.00
09/22/19 9:53:31 AM 119 2.0 6.0 39 19 74.8 83.7 29.919 20.14 2.6 640 0.00 0.00 0.00 0.00
09/22/19 9:54:23 AM 119 1.0 6.0 39 19 74.8 83.8 29.919 20.14 2.7 656 0.00 0.00 0.00 0.00
09/22/19 9:55:18 AM 119 1.0 6.0 39 19 74.8 83.9 29.920 20.14 2.7 656 0.00 0.00 0.00 0.00
09/22/19 9:56:28 AM 119 0.0 6.0 39 19 74.8 84.1 29.916 20.14 2.7 647 0.00 0.00 0.00 0.00
09/22/19 9:57:22 AM 119 2.0 6.0 39 18 74.8 84.3 29.916 20.14 2.7 642 0.00 0.00 0.00 0.00
09/22/19 9:58:28 AM 119 0.0 6.0 39 19 74.8 84.5 29.920 20.14 2.7 628 0.00 0.00 0.00 0.00
09/22/19 9:59:22 AM 119 0.0 6.0 39 19 74.8 84.7 29.920 20.14 2.8 643 0.00 0.00 0.00 0.00
09/22/19 10:00:34 AM 119 0.0 6.0 39 18 74.8 85.0 29.919 20.14 2.7 573 0.00 0.00 0.00 0.00
09/22/19 10:01:27 AM 119 1.0 6.0 39 18 74.9 85.3 29.918 20.14 2.6 540 0.00 0.00 0.00 0.00
09/22/19 10:02:18 AM 119 3.0 6.0 39 19 74.9 85.5 29.918 20.14 2.6 575 0.00 0.00 0.00 0.00
09/22/19 10:03:30 AM 119 4.0 6.0 39 19 74.8 85.7 29.923 20.14 2.7 589 0.00 0.00 0.00 0.00
09/22/19 10:04:21 AM 119 1.0 6.0 39 18 74.8 85.9 29.923 20.14 2.7 624 0.00 0.00 0.00 0.00
09/22/19 10:05:34 AM 119 1.0 6.0 39 18 74.8 86.0 29.920 20.14 2.8 621 0.00 0.00 0.00 0.00
09/22/19 10:06:25 AM 119 2.0 6.0 39 18 74.9 86.2 29.920 20.14 2.8 613 0.00 0.00 0.00 0.00
09/22/19 10:07:17 AM 119 3.0 6.0 39 18 74.9 86.3 29.920 20.14 2.7 571 0.00 0.00 0.00 0.00
09/22/19 10:08:29 AM 119 3.0 6.0 39 17 74.8 86.5 29.921 20.14 2.7 571 0.00 0.00 0.00 0.00
09/22/19 10:09:18 AM 119 2.0 6.0 39 17 74.8 86.6 29.921 20.14 2.7 545 0.00 0.00 0.00 0.00
09/22/19 10:10:29 AM 119 1.0 6.0 39 17 74.9 86.6 29.921 20.14 2.6 499 0.00 0.00 0.00 0.00
09/22/19 10:11:22 AM 119 3.0 6.0 39 17 74.9 86.7 29.921 20.14 2.7 499 0.00 0.00 0.00 0.00
09/22/19 10:12:16 AM 119 3.0 6.0 39 17 74.9 86.8 29.918 20.14 2.8 559 0.00 0.00 0.00 0.00
09/22/19 10:13:29 AM 119 1.0 6.0 39 17 74.9 86.9 29.922 20.14 2.9 580 0.00 0.00 0.00 0.00
09/22/19 10:14:20 AM 119 1.0 6.0 39 17 74.9 87.0 29.922 20.14 3.0 626 0.00 0.00 0.00 0.00
09/22/19 10:15:30 AM 119 2.0 6.0 39 17 74.9 87.2 29.921 20.14 3.0 608 0.00 0.00 0.00 0.00
09/22/19 10:16:22 AM 119 1.0 6.0 39 17 74.9 87.3 29.921 20.14 3.0 612 0.00 0.00 0.00 0.00
09/22/19 10:17:32 AM 119 1.0 6.0 39 17 74.9 87.5 29.921 20.14 3.0 613 0.00 0.00 0.00 0.00
09/22/19 10:18:23 AM 119 0.0 6.0 39 16 74.9 87.6 29.921 20.14 3.0 643 0.00 0.00 0.00 0.00
09/22/19 10:19:15 AM 119 3.0 6.0 39 16 74.9 87.7 29.921 20.14 3.1 668 0.00 0.00 0.00 0.00
09/22/19 10:20:25 AM 119 3.0 6.0 39 16 74.9 87.7 29.916 20.14 2.7 666 0.00 0.00 0.00 0.00
09/22/19 10:21:35 AM 119 2.0 6.0 39 15 74.9 87.7 29.920 20.14 3.3 689 0.00 0.00 0.00 0.00
09/22/19 10:22:29 AM 119 1.0 6.0 39 15 74.9 87.8 29.921 20.14 3.3 657 0.00 0.00 0.00 0.00
09/22/19 10:23:21 AM 119 0.0 6.0 39 16 74.9 87.8 29.921 20.14 3.1 636 0.00 0.00 0.00 0.00
09/22/19 10:24:34 AM 119 0.0 6.0 39 15 75.0 87.9 29.921 20.14 3.0 575 0.00 0.00 0.00 0.00
09/22/19 10:25:22 AM 119 0.0 6.0 39 15 75.0 88.1 29.921 20.14 2.8 497 0.00 0.00 0.00 0.00
09/22/19 10:26:32 AM 119 1.0 6.0 39 15 74.9 88.3 29.920 20.14 2.9 497 0.00 0.00 0.00 0.00
09/22/19 10:27:24 AM 36 2.0 6.0 39 15 74.9 88.4 29.920 20.14 3.0 555 0.00 0.00 0.00 0.00
09/22/19 10:28:36 AM 11 2.0 6.0 39 15 75.0 88.6 29.916 20.14 3.2 642 0.00 0.00 0.00 0.00
09/22/19 10:29:25 AM 11 0.0 6.0 39 15 75.0 88.6 29.919 20.14 3.3 642 0.00 0.00 0.00 0.00
09/22/19 10:30:19 AM 336 2.0 6.0 39 15 75.0 88.6 29.919 20.14 3.5 693 0.00 0.00 0.00 0.00
09/22/19 10:31:26 AM 335 2.0 6.0 39 15 75.0 88.7 29.917 20.14 3.4 696 0.00 0.00 0.00 0.00
09/22/19 10:32:21 AM 231 3.0 6.0 39 15 75.0 88.8 29.917 20.14 3.5 657 0.00 0.00 0.00 0.00
09/22/19 10:33:34 AM 232 3.0 6.0 39 15 75.0 88.9 29.917 20.14 3.0 587 0.00 0.00 0.00 0.00
09/22/19 10:34:25 AM 244 1.0 6.0 39 15 75.1 89.0 29.916 20.14 3.0 522 0.00 0.00 0.00 0.00
09/22/19 10:35:16 AM 237 3.0 6.0 39 15 75.1 89.1 29.916 20.14 3.0 548 0.00 0.00 0.00 0.00
09/22/19 10:36:24 AM 186 2.0 6.0 39 15 75.1 89.1 29.919 20.14 3.0 548 0.00 0.00 0.00 0.00
09/22/19 10:37:18 AM 187 2.0 6.0 39 15 75.0 89.2 29.917 20.14 3.0 515 0.00 0.00 0.00 0.00
09/22/19 10:38:28 AM 194 3.0 6.0 39 15 75.1 89.3 29.918 20.14 2.8 487 0.00 0.00 0.00 0.00
09/22/19 10:39:19 AM 194 2.0 6.0 39 15 75.1 89.3 29.918 20.14 2.6 392 0.00 0.00 0.00 0.00
09/22/19 10:40:32 AM 194 1.0 6.0 39 15 75.1 89.4 29.919 20.14 2.6 357 0.00 0.00 0.00 0.00
09/22/19 10:41:21 AM 194 1.0 6.0 39 14 75.1 89.4 29.919 20.14 2.5 345 0.00 0.00 0.00 0.00
09/22/19 10:42:34 AM 201 2.0 6.0 39 15 75.1 89.4 29.918 20.14 2.5 334 0.00 0.00 0.00 0.00
09/22/19 10:43:26 AM 220 3.0 6.0 39 15 75.1 89.4 29.920 20.14 2.6 369 0.00 0.00 0.00 0.00
09/22/19 10:44:20 AM 220 1.0 6.0 39 15 75.1 89.4 29.920 20.14 2.7 383 0.00 0.00 0.00 0.00
09/22/19 10:45:32 AM 220 1.0 6.0 39 15 75.0 89.5 29.919 20.14 2.7 394 0.00 0.00 0.00 0.00
09/22/19 10:46:24 AM 220 2.0 6.0 39 15 75.0 89.5 29.919 20.14 3.1 628 0.00 0.00 0.00 0.00
09/22/19 10:47:33 AM 220 3.0 6.0 39 15 75.1 89.5 29.920 20.14 3.5 715 0.00 0.00 0.00 0.00
09/22/19 10:48:26 AM 220 3.0 6.0 39 14 75.1 89.5 29.922 20.14 3.8 654 0.00 0.00 0.00 0.00
09/22/19 10:49:18 AM 220 2.0 6.0 39 14 75.1 89.6 29.922 20.14 3.8 747 0.00 0.00 0.00 0.00
09/22/19 10:50:29 AM 223 3.0 6.0 39 15 75.1 89.7 29.921 20.14 3.7 687 0.00 0.00 0.00 0.00
09/22/19 10:51:22 AM 231 3.0 6.0 39 14 75.1 89.7 29.921 20.14 3.5 612 0.00 0.00 0.00 0.00
09/22/19 10:52:29 AM 231 3.0 6.0 39 14 75.1 89.7 29.919 20.14 3.2 534 0.00 0.00 0.00 0.00
09/22/19 10:53:21 AM 221 3.0 6.0 39 14 75.1 89.7 29.919 20.14 2.9 450 0.00 0.00 0.00 0.00
09/22/19 10:54:34 AM 221 3.0 6.0 39 13 75.1 89.8 29.920 20.14 2.8 374 0.00 0.00 0.00 0.00
09/22/19 10:55:28 AM 221 0.0 6.0 39 13 75.1 89.8 29.916 20.14 2.7 346 0.00 0.00 0.00 0.00
09/22/19 10:56:19 AM 221 0.0 6.0 39 13 75.1 89.8 29.916 20.14 2.7 346 0.00 0.00 0.00 0.00
09/22/19 10:57:27 AM 221 0.0 6.0 39 13 75.1 89.8 29.919 20.14 2.7 364 0.00 0.00 0.00 0.00
09/22/19 10:58:20 AM 221 0.0 6.0 39 13 75.1 89.8 29.919 20.14 3.0 436 0.00 0.00 0.00 0.00
09/22/19 10:59:32 AM 221 1.0 6.0 39 13 75.2 89.8 29.916 20.14 3.0 448 0.00 0.00 0.00 0.00
09/22/19 11:00:25 AM 221 2.0 6.0 39 13 75.2 89.9 29.916 20.14 3.0 415 0.00 0.00 0.00 0.00
09/22/19 11:01:18 AM 221 1.0 6.0 39 12 75.2 89.9 29.917 20.14 3.0 415 0.00 0.00 0.00 0.00
09/22/19 11:02:31 AM 222 1.0 6.0 39 13 75.2 89.9 29.916 20.14 3.5 571 0.00 0.00 0.00 0.00
09/22/19 11:03:19 AM 222 3.0 6.0 39 13 75.2 89.9 29.916 20.14 3.5 582 0.00 0.00 0.00 0.00
09/22/19 11:04:32 AM 228 1.0 6.0 39 13 75.2 89.9 29.916 20.14 3.4 547 0.00 0.00 0.00 0.00
09/22/19 11:05:27 AM 231 2.0 6.0 39 13 75.2 89.9 29.916 20.14 3.4 547 0.00 0.00 0.00 0.00
09/22/19 11:06:17 AM 232 2.0 6.0 39 13 75.2 90.0 29.916 20.14 3.8 547 0.00 0.00 0.00 0.00
09/22/19 11:07:28 AM 338 4.0 6.0 39 13 75.2 90.0 29.913 20.14 4.0 710 0.00 0.00 0.00 0.00
09/22/19 11:08:17 AM 338 4.0 6.0 39 13 75.2 90.0 29.913 20.14 4.0 710 0.00 0.00 0.00 0.00
09/22/19 11:09:28 AM 339 2.0 6.0 39 13 75.2 90.0 29.916 20.14 3.9 666 0.00 0.00 0.00 0.00
09/22/19 11:10:19 AM 339 3.0 6.0 39 13 75.2 90.1 29.916 20.14 3.9 628 0.00 0.00 0.00 0.00
09/22/19 11:11:34 AM 336 2.0 6.0 39 13 75.2 90.1 29.914 20.14 3.7 592 0.00 0.00 0.00 0.00
09/22/19 11:12:26 AM 329 2.0 6.0 39 13 75.2 90.1 29.914 20.14 3.5 559 0.00 0.00 0.00 0.00
09/22/19 11:13:17 AM 330 2.0 6.0 39 13 75.2 90.2 29.912 20.14 3.6 564 0.00 0.00 0.00 0.00
09/22/19 11:14:24 AM 325 2.0 6.0 39 15 75.2 90.3 29.913 20.14 3.5 529 0.00 0.00 0.00 0.00
09/22/19 11:15:19 AM 325 2.0 6.0 39 14 75.2 90.4 29.913 20.14 3.5 545 0.00 0.00 0.00 0.00
09/22/19 11:16:29 AM 293 2.0 6.0 39 14 75.2 90.4 29.913 20.14 3.7 592 0.00 0.00 0.00 0.00
09/22/19 11:17:20 AM 291 2.0 6.0 39 13 75.2 90.5 29.913 20.14 3.7 592 0.00 0.00 0.00 0.00
09/22/19 11:18:33 AM 290 2.0 6.0 39 13 75.3 90.5 29.913 20.14 4.1 592 0.00 0.00 0.00 0.00
09/22/19 11:19:22 AM 290 1.0 6.0 39 14 75.3 90.6 29.913 20.14 4.4 592 0.00 0.00 0.00 0.00
09/22/19 11:20:32 AM 292 2.0 6.0 39 14 75.3 90.7 29.912 20.14 4.4 677 0.00 0.00 0.00 0.00
09/22/19 11:21:26 AM 292 3.0 6.0 39 13 75.3 90.7 29.914 20.14 4.5 752 0.00 0.00 0.00 0.00
09/22/19 11:22:18 AM 294 4.0 6.0 39 13 75.3 90.8 29.914 20.14 4.2 677 0.00 0.00 0.00 0.00
09/22/19 11:23:31 AM 290 2.0 6.0 39 14 75.3 90.9 29.913 20.14 4.4 703 0.00 0.00 0.00 0.00
09/22/19 11:24:19 AM 290 1.0 6.0 39 14 75.3 91.0 29.913 20.14 4.1 657 0.00 0.00 0.00 0.00
09/22/19 11:25:32 AM 247 4.0 6.0 39 14 75.3 91.1 29.914 20.14 4.7 657 0.00 0.00 0.00 0.00
09/22/19 11:26:23 AM 246 4.0 6.0 39 13 75.3 91.2 29.914 20.14 4.5 805 0.00 0.00 0.00 0.00
09/22/19 11:27:34 AM 246 2.0 6.0 39 13 75.3 91.3 29.912 20.14 5.1 904 0.00 0.00 0.00 0.00
09/22/19 11:28:26 AM 246 2.0 6.0 39 13 75.3 91.4 29.911 20.14 4.0 904 0.00 0.00 0.00 0.00
09/22/19 11:29:19 AM 294 3.0 6.0 39 13 75.3 91.5 29.911 20.14 5.4 904 0.00 0.00 0.00 0.00
09/22/19 11:30:27 AM 298 4.0 6.0 39 12 75.3 91.5 29.910 20.14 5.3 972 0.00 0.00 0.00 0.00
09/22/19 11:31:19 AM 300 1.0 6.0 39 12 75.3 91.4 29.910 20.14 5.3 972 0.00 0.00 0.00 0.00
09/22/19 11:32:30 AM 299 2.0 6.0 39 12 75.4 91.4 29.912 20.14 4.8 835 0.00 0.00 0.00 0.00
09/22/19 11:33:22 AM 299 2.0 6.0 39 12 75.4 91.4 29.912 20.14 4.8 779 0.00 0.00 0.00 0.00
09/22/19 11:34:34 AM 299 1.0 6.0 39 12 75.4 91.5 29.909 20.14 4.1 779 0.00 0.00 0.00 0.00
09/22/19 11:35:25 AM 300 0.0 6.0 39 12 75.4 91.6 29.909 20.14 3.6 779 0.00 0.00 0.00 0.00
09/22/19 11:36:35 AM 312 3.0 6.0 39 13 75.4 91.7 29.910 20.14 3.2 399 0.00 0.00 0.00 0.00
09/22/19 11:37:26 AM 312 2.0 6.0 39 13 75.4 91.7 29.908 20.14 3.1 380 0.00 0.00 0.00 0.00
09/22/19 11:38:18 AM 360 2.0 6.0 39 12 75.4 91.7 29.908 20.14 3.0 360 0.00 0.00 0.00 0.00
09/22/19 11:39:31 AM 355 4.0 6.0 39 12 75.4 91.6 29.906 20.14 3.0 346 0.00 0.00 0.00 0.00
09/22/19 11:40:19 AM 347 4.0 6.0 39 12 75.4 91.6 29.906 20.14 3.0 360 0.00 0.00 0.00 0.00
09/22/19 11:41:32 AM 347 1.0 6.0 39 12 75.4 91.4 29.904 20.14 3.0 359 0.00 0.00 0.00 0.00
09/22/19 11:42:24 AM 347 0.0 6.0 39 12 75.4 91.4 29.904 20.14 2.9 348 0.00 0.00 0.00 0.00
09/22/19 11:43:15 AM 347 1.0 6.0 39 12 75.5 91.3 29.906 20.14 2.9 350 0.00 0.00 0.00 0.00
09/22/19 11:44:28 AM 69 3.0 6.0 39 12 75.4 91.2 29.907 20.14 2.9 348 0.00 0.00 0.00 0.00
09/22/19 11:45:23 AM 75 0.0 6.0 39 12 75.4 91.1 29.907 20.14 2.9 348 0.00 0.00 0.00 0.00
09/22/19 11:46:30 AM 75 0.0 6.0 39 12 75.4 91.1 29.904 20.14 2.9 397 0.00 0.00 0.00 0.00
09/22/19 11:47:21 AM 75 0.0 6.0 39 13 75.4 91.1 29.904 20.14 3.1 397 0.00 0.00 0.00 0.00
09/22/19 11:48:34 AM 175 6.0 6.0 39 13 75.4 91.2 29.906 20.14 3.4 510 0.00 0.00 0.00 0.00
09/22/19 11:49:26 AM 202 6.0 7.0 39 13 75.5 91.2 29.906 20.14 3.7 577 0.00 0.00 0.00 0.00
09/22/19 11:50:18 AM 177 2.0 7.0 39 12 75.5 91.2 29.904 20.14 3.7 547 0.00 0.00 0.00 0.00

University Police wind advisory reference

For campus closure information please call the campus Emergency Hotline at (909) 537-5999

© All rights reserved. Unauthorized duplication or distribution is prohibited

Never base important decisions on this or any weather information obtained from the Internet

California State University, San Bernardino
5500 University Parkway, San Bernardino, CA. 92407
Phone: (909) 537-5108, Email: Weather Webmaster
Last Updated: